Wetterdaten: Dienstag, 23.10.2018
Datum Zeit Temp. Aussen Temp. o. S. +5cm Feuchte Auss Luftdruck Regen Sonnenschein Regendauer Solar Windben Empfang
23.10.2018 00:00 6,1 C 5,0 C 5,0 C 88 % 1031,3 hPa 0,0 l/m 0 min 0 min 0 W/m 3,2 km/h (1 Bft) 97,83 %
23.10.2018 00:02 6,1 C 5,0 C 5,6 C 88 % 1031,2 hPa 0,0 l/m 0 min 0 min 0 W/m 0,0 km/h (0 Bft) 95,00 %
23.10.2018 00:04 6,1 C 5,0 C 5,0 C 88 % 1031,3 hPa 0,0 l/m 0 min 0 min 0 W/m 0,0 km/h (0 Bft) 97,87 %
23.10.2018 00:07 6,1 C 5,0 C 5,0 C 88 % 1031,3 hPa 0,0 l/m 0 min 0 min 0 W/m 0,0 km/h (0 Bft) 97,87 %
23.10.2018 00:08 6,1 C 5,0 C 5,0 C 88 % 1031,3 hPa 0,0 l/m 0 min 0 min 0 W/m 0,0 km/h (0 Bft) 97,87 %
23.10.2018 00:10 6,0 C 5,0 C 5,0 C 88 % 1031,2 hPa 0,0 l/m 0 min 0 min 0 W/m 0,0 km/h (0 Bft) 97,16 %
23.10.2018 00:12 6,0 C 5,0 C 5,0 C 88 % 1031,2 hPa 0,0 l/m 0 min 0 min 0 W/m 0,0 km/h (0 Bft) 95,65 %
23.10.2018 00:14 6,0 C 5,0 C 5,0 C 88 % 1031,2 hPa 0,0 l/m 0 min 0 min 0 W/m 0,0 km/h (0 Bft) 97,87 %
23.10.2018 00:16 5,9 C 5,0 C 5,0 C 88 % 1031,3 hPa 0,0 l/m 0 min 0 min 0 W/m 0,0 km/h (0 Bft) 97,87 %
23.10.2018 00:18 5,9 C 5,0 C 5,0 C 88 % 1031,3 hPa 0,0 l/m 0 min 0 min 0 W/m 3,2 km/h (1 Bft) 97,87 %
23.10.2018 00:20 5,9 C 5,0 C 5,0 C 88 % 1031,2 hPa 0,0 l/m 0 min 0 min 0 W/m 0,0 km/h (0 Bft) 95,74 %
23.10.2018 00:22 5,9 C 5,0 C 5,0 C 88 % 1031,1 hPa 0,0 l/m 0 min 0 min 0 W/m 0,0 km/h (0 Bft) 95,74 %
23.10.2018 00:24 5,8 C 5,0 C 5,0 C 88 % 1031,2 hPa 0,0 l/m 0 min 0 min 0 W/m 0,0 km/h (0 Bft) 97,83 %
23.10.2018 00:26 5,8 C 4,4 C 5,0 C 88 % 1031,2 hPa 0,0 l/m 0 min 0 min 0 W/m 0,0 km/h (0 Bft) 97,87 %
23.10.2018 00:28 5,8 C 4,4 C 4,4 C 88 % 1031,2 hPa 0,0 l/m 0 min 0 min 0 W/m 0,0 km/h (0 Bft) 97,87 %
23.10.2018 00:30 5,8 C 4,4 C 4,4 C 88 % 1031,2 hPa 0,0 l/m 0 min 0 min 0 W/m 0,0 km/h (0 Bft) 100,00 %
23.10.2018 00:32 5,8 C 4,4 C 4,4 C 88 % 1031,2 hPa 0,0 l/m 0 min 0 min 0 W/m 0,0 km/h (0 Bft) 100,00 %
23.10.2018 00:34 5,7 C 4,4 C 4,4 C 88 % 1031,2 hPa 0,0 l/m 0 min 0 min 0 W/m 0,0 km/h (0 Bft) 97,87 %
23.10.2018 00:38 5,7 C 4,4 C 4,4 C 88 % 1031,1 hPa 0,0 l/m 0 min 0 min 0 W/m 0,0 km/h (0 Bft) 100,00 %
23.10.2018 00:40 5,7 C 4,4 C 4,4 C 88 % 1031,0 hPa 0,0 l/m 0 min 0 min 0 W/m 0,0 km/h (0 Bft) 100,00 %
23.10.2018 00:42 5,6 C 4,4 C 4,4 C 88 % 1030,9 hPa 0,0 l/m 0 min 0 min 0 W/m 0,0 km/h (0 Bft) 100,00 %
23.10.2018 00:44 5,6 C 4,4 C 4,4 C 88 % 1030,9 hPa 0,0 l/m 0 min 0 min 0 W/m 0,0 km/h (0 Bft) 100,00 %
23.10.2018 00:46 5,6 C 4,4 C 4,4 C 88 % 1030,8 hPa 0,0 l/m 0 min 0 min 0 W/m 0,0 km/h (0 Bft) 100,00 %
23.10.2018 00:48 5,6 C 4,4 C 4,4 C 88 % 1030,9 hPa 0,0 l/m 0 min 0 min 0 W/m 0,0 km/h (0 Bft) 100,00 %
23.10.2018 00:50 5,5 C 4,4 C 4,4 C 88 % 1030,8 hPa 0,0 l/m 0 min 0 min 0 W/m 0,0 km/h (0 Bft) 97,87 %
23.10.2018 00:52 5,4 C 4,4 C 4,4 C 88 % 1030,8 hPa 0,0 l/m 0 min 0 min 0 W/m 0,0 km/h (0 Bft) 95,74 %
23.10.2018 00:54 5,4 C 4,4 C 4,4 C 88 % 1030,8 hPa 0,0 l/m 0 min 0 min 0 W/m 0,0 km/h (0 Bft) 100,00 %
23.10.2018 00:56 5,4 C 3,9 C 3,9 C 88 % 1030,7 hPa 0,0 l/m 0 min 0 min 0 W/m 0,0 km/h (0 Bft) 100,00 %
23.10.2018 00:58 5,4 C 3,9 C 3,9 C 88 % 1030,7 hPa 0,0 l/m 0 min 0 min 0 W/m 0,0 km/h (0 Bft) 100,00 %
23.10.2018 01:00 5,3 C 3,9 C 3,9 C 88 % 1030,7 hPa 0,0 l/m 0 min 0 min 0 W/m 0,0 km/h (0 Bft) 100,00 %
23.10.2018 01:02 5,3 C 3,9 C 3,9 C 88 % 1030,7 hPa 0,0 l/m 0 min 0 min 0 W/m 0,0 km/h (0 Bft) 100,00 %
23.10.2018 01:04 5,3 C 4,4 C 3,9 C 88 % 1030,6 hPa 0,0 l/m 0 min 0 min 0 W/m 0,0 km/h (0 Bft) 100,00 %
23.10.2018 01:08 5,2 C 4,4 C 3,9 C 88 % 1030,6 hPa 0,0 l/m 0 min 0 min 0 W/m 0,0 km/h (0 Bft) 98,94 %
23.10.2018 01:10 5,2 C 4,4 C 3,9 C 88 % 1030,6 hPa 0,0 l/m 0 min 0 min 0 W/m 0,0 km/h (0 Bft) 97,83 %
23.10.2018 01:12 5,2 C 3,9 C 3,9 C 88 % 1030,7 hPa 0,0 l/m 0 min 0 min 0 W/m 0,0 km/h (0 Bft) 97,87 %
23.10.2018 01:14 5,2 C 3,9 C 3,9 C 88 % 1030,7 hPa 0,0 l/m 0 min 0 min 0 W/m 0,0 km/h (0 Bft) 97,87 %
23.10.2018 01:16 5,1 C 3,9 C 3,9 C 88 % 1030,6 hPa 0,0 l/m 0 min 0 min 0 W/m 0,0 km/h (0 Bft) 97,87 %
23.10.2018 01:18 5,1 C 3,9 C 3,9 C 88 % 1030,6 hPa 0,0 l/m 0 min 0 min 0 W/m 0,0 km/h (0 Bft) 97,87 %
23.10.2018 01:20 5,1 C 3,9 C 3,9 C 88 % 1030,5 hPa 0,0 l/m 0 min 0 min 0 W/m 0,0 km/h (0 Bft) 95,74 %
23.10.2018 01:22 5,1 C 3,9 C 3,9 C 88 % 1030,4 hPa 0,0 l/m 0 min 0 min 0 W/m 0,0 km/h (0 Bft) 95,65 %
23.10.2018 01:24 5,0 C 3,9 C 3,9 C 89 % 1030,4 hPa 0,0 l/m 0 min 0 min 0 W/m 0,0 km/h (0 Bft) 97,87 %
23.10.2018 01:26 5,0 C 3,9 C 3,9 C 89 % 1030,5 hPa 0,0 l/m 0 min 0 min 0 W/m 0,0 km/h (0 Bft) 97,87 %
23.10.2018 01:28 4,9 C 3,9 C 3,9 C 89 % 1030,4 hPa 0,0 l/m 0 min 0 min 0 W/m 0,0 km/h (0 Bft) 95,74 %
23.10.2018 01:30 4,9 C 4,4 C 3,9 C 89 % 1030,4 hPa 0,0 l/m 0 min 0 min 0 W/m 3,2 km/h (1 Bft) 95,74 %
23.10.2018 01:32 4,9 C 4,4 C 4,4 C 89 % 1030,4 hPa 0,0 l/m 0 min 0 min 0 W/m 0,0 km/h (0 Bft) 95,83 %
23.10.2018 01:34 4,9 C 4,4 C 4,4 C 89 % 1030,4 hPa 0,0 l/m 0 min 0 min 0 W/m 0,0 km/h (0 Bft) 95,65 %
23.10.2018 01:38 4,9 C 3,9 C 3,9 C 89 % 1030,4 hPa 0,0 l/m 0 min 0 min 0 W/m 0,0 km/h (0 Bft) 94,68 %
23.10.2018 01:40 4,8 C 3,9 C 4,4 C 89 % 1030,4 hPa 0,0 l/m 0 min 0 min 0 W/m 0,0 km/h (0 Bft) 95,74 %
23.10.2018 01:42 4,8 C 3,9 C 4,4 C 89 % 1030,4 hPa 0,0 l/m 0 min 0 min 0 W/m 0,0 km/h (0 Bft) 95,74 %
23.10.2018 01:44 4,8 C 3,9 C 4,4 C 89 % 1030,5 hPa 0,0 l/m 0 min 0 min 0 W/m 0,0 km/h (0 Bft) 93,62 %
23.10.2018 01:46 4,8 C 4,4 C 4,4 C 89 % 1030,4 hPa 0,0 l/m 0 min 0 min 0 W/m 0,0 km/h (0 Bft) 93,48 %
23.10.2018 01:48 4,8 C 3,9 C 4,4 C 90 % 1030,4 hPa 0,0 l/m 0 min 0 min 0 W/m 0,0 km/h (0 Bft) 93,62 %
23.10.2018 01:50 4,8 C 3,9 C 4,4 C 90 % 1030,3 hPa 0,0 l/m 0 min 0 min 0 W/m 0,0 km/h (0 Bft) 91,49 %
23.10.2018 01:52 4,8 C 3,9 C 4,4 C 90 % 1030,3 hPa 0,0 l/m 0 min 0 min 0 W/m 0,0 km/h (0 Bft) 87,23 %
23.10.2018 01:54 4,8 C 3,9 C 3,9 C 90 % 1030,3 hPa 0,0 l/m 0 min 0 min 0 W/m 0,0 km/h (0 Bft) 95,74 %
23.10.2018 01:56 4,8 C 3,9 C 3,9 C 90 % 1030,3 hPa 0,0 l/m 0 min 0 min 0 W/m 0,0 km/h (0 Bft) 91,30 %
23.10.2018 01:58 4,7 C 3,9 C 3,9 C 90 % 1030,2 hPa 0,0 l/m 0 min 0 min 0 W/m 0,0 km/h (0 Bft) 93,62 %
23.10.2018 02:00 4,7 C 3,9 C 3,9 C 90 % 1030,2 hPa 0,0 l/m 0 min 0 min 0 W/m 0,0 km/h (0 Bft) 93,62 %
23.10.2018 02:02 4,7 C 3,9 C 3,9 C 90 % 1030,3 hPa 0,0 l/m 0 min 0 min 0 W/m 0,0 km/h (0 Bft) 91,49 %
23.10.2018 02:04 4,7 C 4,4 C 3,9 C 90 % 1030,2 hPa 0,0 l/m 0 min 0 min 0 W/m 3,2 km/h (1 Bft) 89,36 %
23.10.2018 02:08 4,7 C 4,4 C 4,4 C 90 % 1030,0 hPa 0,0 l/m 0 min 0 min 0 W/m 3,2 km/h (1 Bft) 92,55 %
23.10.2018 02:10 4,7 C 4,4 C 4,4 C 91 % 1030,0 hPa 0,0 l/m 0 min 0 min 0 W/m 0,0 km/h (0 Bft) 91,49 %
23.10.2018 02:12 4,7 C 4,4 C 4,4 C 91 % 1029,9 hPa 0,0 l/m 0 min 0 min 0 W/m 3,2 km/h (1 Bft) 93,62 %
23.10.2018 02:14 4,8 C 4,4 C 4,4 C 91 % 1029,8 hPa 0,0 l/m 0 min 0 min 0 W/m 3,2 km/h (1 Bft) 93,62 %
23.10.2018 02:16 4,8 C 4,4 C 4,4 C 91 % 1030,0 hPa 0,0 l/m 0 min 0 min 0 W/m 0,0 km/h (0 Bft) 93,62 %
23.10.2018 02:18 4,8 C 3,9 C 4,4 C 91 % 1030,1 hPa 0,0 l/m 0 min 0 min 0 W/m 0,0 km/h (0 Bft) 93,62 %
23.10.2018 02:20 4,8 C 3,9 C 4,4 C 91 % 1030,1 hPa 0,0 l/m 0 min 0 min 0 W/m 0,0 km/h (0 Bft) 95,65 %
23.10.2018 02:22 4,8 C 3,9 C 4,4 C 91 % 1030,0 hPa 0,0 l/m 0 min 0 min 0 W/m 3,2 km/h (1 Bft) 95,74 %
23.10.2018 02:24 4,7 C 3,9 C 4,4 C 91 % 1030,0 hPa 0,0 l/m 0 min 0 min 0 W/m 0,0 km/h (0 Bft) 97,87 %
23.10.2018 02:26 4,8 C 3,9 C 4,4 C 91 % 1030,0 hPa 0,0 l/m 0 min 0 min 0 W/m 0,0 km/h (0 Bft) 95,74 %
23.10.2018 02:28 4,8 C 3,9 C 4,4 C 91 % 1030,0 hPa 0,0 l/m 0 min 0 min 0 W/m 3,2 km/h (1 Bft) 97,87 %
23.10.2018 02:30 4,7 C 3,9 C 4,4 C 91 % 1029,8 hPa 0,0 l/m 0 min 0 min 0 W/m 3,2 km/h (1 Bft) 97,87 %
23.10.2018 02:32 4,7 C 3,9 C 4,4 C 91 % 1029,7 hPa 0,0 l/m 0 min 0 min 0 W/m 0,0 km/h (0 Bft) 100,00 %
23.10.2018 02:34 4,7 C 3,9 C 4,4 C 91 % 1029,8 hPa 0,0 l/m 0 min 0 min 0 W/m 0,0 km/h (0 Bft) 100,00 %
23.10.2018 02:38 4,7 C 3,9 C 4,4 C 91 % 1029,8 hPa 0,0 l/m 0 min 0 min 0 W/m 0,0 km/h (0 Bft) 96,81 %
23.10.2018 02:40 4,7 C 3,9 C 3,9 C 91 % 1029,7 hPa 0,0 l/m 0 min 0 min 0 W/m 3,2 km/h (1 Bft) 100,00 %
23.10.2018 02:42 4,7 C 3,9 C 3,9 C 91 % 1029,6 hPa 0,0 l/m 0 min 0 min 0 W/m 0,0 km/h (0 Bft) 100,00 %
23.10.2018 02:44 4,7 C 3,9 C 4,4 C 91 % 1029,6 hPa 0,0 l/m 0 min 0 min 0 W/m 0,0 km/h (0 Bft) 97,87 %
23.10.2018 02:46 4,7 C 3,9 C 4,4 C 92 % 1029,6 hPa 0,0 l/m 0 min 0 min 0 W/m 3,2 km/h (1 Bft) 100,00 %
23.10.2018 02:48 4,7 C 3,9 C 4,4 C 92 % 1029,4 hPa 0,0 l/m 0 min 0 min 0 W/m 0,0 km/h (0 Bft) 97,87 %
23.10.2018 02:50 4,7 C 4,4 C 4,4 C 92 % 1029,1 hPa 0,0 l/m 0 min 0 min 0 W/m 6,4 km/h (2 Bft) 100,00 %
23.10.2018 02:52 4,7 C 4,4 C 4,4 C 92 % 1029,0 hPa 0,0 l/m 0 min 0 min 0 W/m 3,2 km/h (1 Bft) 100,00 %
23.10.2018 02:54 4,7 C 4,4 C 5,0 C 92 % 1029,0 hPa 0,0 l/m 0 min 0 min 0 W/m 6,4 km/h (2 Bft) 97,87 %
23.10.2018 02:56 4,7 C 4,4 C 5,0 C 92 % 1029,0 hPa 0,0 l/m 0 min 0 min 0 W/m 9,7 km/h (2 Bft) 100,00 %
23.10.2018 02:58 4,8 C 5,0 C 5,0 C 92 % 1029,0 hPa 0,0 l/m 0 min 0 min 0 W/m 3,2 km/h (1 Bft) 100,00 %
23.10.2018 03:00 4,8 C 5,0 C 5,0 C 92 % 1029,0 hPa 0,0 l/m 0 min 0 min 0 W/m 3,2 km/h (1 Bft) 100,00 %
23.10.2018 03:02 4,8 C 5,0 C 5,0 C 92 % 1028,8 hPa 0,0 l/m 0 min 0 min 0 W/m 3,2 km/h (1 Bft) 100,00 %
23.10.2018 03:04 4,8 C 5,0 C 5,0 C 92 % 1028,9 hPa 0,0 l/m 0 min 0 min 0 W/m 6,4 km/h (2 Bft) 95,74 %
23.10.2018 03:08 4,9 C 5,0 C 5,0 C 92 % 1028,8 hPa 0,0 l/m 0 min 0 min 0 W/m 6,4 km/h (2 Bft) 100,00 %
23.10.2018 03:10 4,9 C 5,0 C 5,0 C 92 % 1028,8 hPa 0,0 l/m 0 min 0 min 0 W/m 6,4 km/h (2 Bft) 100,00 %
23.10.2018 03:12 4,9 C 4,4 C 5,0 C 92 % 1028,8 hPa 0,0 l/m 0 min 0 min 0 W/m 3,2 km/h (1 Bft) 100,00 %
23.10.2018 03:14 4,9 C 4,4 C 5,0 C 92 % 1028,6 hPa 0,0 l/m 0 min 0 min 0 W/m 6,4 km/h (2 Bft) 100,00 %
23.10.2018 03:16 4,9 C 4,4 C 5,0 C 92 % 1028,5 hPa 0,0 l/m 0 min 0 min 0 W/m 3,2 km/h (1 Bft) 100,00 %
23.10.2018 03:18 4,9 C 5,0 C 5,0 C 93 % 1028,5 hPa 0,0 l/m 0 min 0 min 0 W/m 3,2 km/h (1 Bft) 100,00 %
23.10.2018 03:20 4,9 C 5,0 C 5,0 C 92 % 1028,6 hPa 0,0 l/m 0 min 0 min 0 W/m 3,2 km/h (1 Bft) 100,00 %
23.10.2018 03:22 4,9 C 5,0 C 5,0 C 92 % 1028,5 hPa 0,0 l/m 0 min 0 min 0 W/m 6,4 km/h (2 Bft) 97,87 %
23.10.2018 03:24 5,0 C 5,0 C 5,0 C 92 % 1028,5 hPa 0,0 l/m 0 min 0 min 0 W/m 3,2 km/h (1 Bft) 100,00 %
23.10.2018 03:26 5,0 C 5,0 C 5,0 C 92 % 1028,5 hPa 0,0 l/m 0 min 0 min 0 W/m 3,2 km/h (1 Bft) 100,00 %
23.10.2018 03:28 5,0 C 5,0 C 5,0 C 92 % 1028,5 hPa 0,0 l/m 0 min 0 min 0 W/m 3,2 km/h (1 Bft) 100,00 %
23.10.2018 03:30 5,0 C 5,0 C 5,0 C 92 % 1028,4 hPa 0,0 l/m 0 min 0 min 0 W/m 6,4 km/h (2 Bft) 97,83 %
23.10.2018 03:32 5,1 C 5,0 C 5,0 C 92 % 1028,3 hPa 0,0 l/m 0 min 0 min 0 W/m 6,4 km/h (2 Bft) 100,00 %
23.10.2018 03:34 5,1 C 5,0 C 5,0 C 92 % 1028,2 hPa 0,0 l/m 0 min 0 min 0 W/m 6,4 km/h (2 Bft) 97,87 %
23.10.2018 03:38 5,1 C 5,0 C 5,0 C 92 % 1028,2 hPa 0,0 l/m 0 min 0 min 0 W/m 6,4 km/h (2 Bft) 98,94 %
23.10.2018 03:40 5,1 C 5,0 C 5,0 C 92 % 1028,2 hPa 0,0 l/m 0 min 0 min 0 W/m 6,4 km/h (2 Bft) 100,00 %
23.10.2018 03:42 5,1 C 5,0 C 5,0 C 92 % 1028,2 hPa 0,0 l/m 0 min 0 min 0 W/m 3,2 km/h (1 Bft) 95,65 %
23.10.2018 03:44 5,1 C 5,0 C 5,0 C 92 % 1028,3 hPa 0,0 l/m 0 min 0 min 0 W/m 3,2 km/h (1 Bft) 97,87 %
23.10.2018 03:46 5,1 C 5,0 C 5,0 C 92 % 1028,3 hPa 0,0 l/m 0 min 0 min 0 W/m 0,0 km/h (0 Bft) 97,87 %
23.10.2018 03:48 5,1 C 4,4 C 5,0 C 93 % 1028,2 hPa 0,0 l/m 0 min 0 min 0 W/m 0,0 km/h (0 Bft) 100,00 %
23.10.2018 03:50 5,1 C 5,0 C 5,0 C 93 % 1028,2 hPa 0,0 l/m 0 min 0 min 0 W/m 6,4 km/h (2 Bft) 100,00 %
23.10.2018 03:52 5,1 C 5,0 C 5,0 C 93 % 1028,2 hPa 0,0 l/m 0 min 0 min 0 W/m 6,4 km/h (2 Bft) 97,87 %
23.10.2018 03:54 5,1 C 5,0 C 5,0 C 92 % 1028,1 hPa 0,0 l/m 0 min 0 min 0 W/m 6,4 km/h (2 Bft) 97,83 %
23.10.2018 03:56 5,1 C 5,0 C 5,0 C 92 % 1028,1 hPa 0,0 l/m 0 min 0 min 0 W/m 9,7 km/h (2 Bft) 97,87 %
23.10.2018 03:58 5,1 C 5,0 C 5,0 C 92 % 1028,1 hPa 0,0 l/m 0 min 0 min 0 W/m 6,4 km/h (2 Bft) 97,87 %
23.10.2018 04:00 5,2 C 5,0 C 5,6 C 92 % 1027,9 hPa 0,0 l/m 0 min 0 min 0 W/m 6,4 km/h (2 Bft) 97,87 %
23.10.2018 04:02 5,2 C 5,0 C 5,6 C 92 % 1027,8 hPa 0,0 l/m 0 min 0 min 0 W/m 3,2 km/h (1 Bft) 100,00 %
23.10.2018 04:04 5,2 C 5,0 C 5,6 C 92 % 1027,7 hPa 0,0 l/m 0 min 0 min 0 W/m 6,4 km/h (2 Bft) 93,62 %
23.10.2018 04:08 5,2 C 5,0 C 5,6 C 92 % 1027,9 hPa 0,0 l/m 0 min 0 min 0 W/m 9,7 km/h (2 Bft) 96,81 %
23.10.2018 04:10 5,3 C 5,0 C 5,6 C 92 % 1027,9 hPa 0,0 l/m 0 min 0 min 0 W/m 3,2 km/h (1 Bft) 97,87 %
23.10.2018 04:12 5,3 C 5,0 C 5,6 C 92 % 1027,9 hPa 0,0 l/m 0 min 0 min 0 W/m 6,4 km/h (2 Bft) 91,49 %
23.10.2018 04:14 5,3 C 5,0 C 5,6 C 92 % 1027,7 hPa 0,0 l/m 0 min 0 min 0 W/m 6,4 km/h (2 Bft) 97,87 %
23.10.2018 04:16 5,3 C 5,0 C 5,6 C 92 % 1027,6 hPa 0,0 l/m 0 min 0 min 0 W/m 3,2 km/h (1 Bft) 95,74 %
23.10.2018 04:18 5,3 C 5,0 C 5,6 C 92 % 1027,5 hPa 0,0 l/m 0 min 0 min 0 W/m 6,4 km/h (2 Bft) 97,87 %
23.10.2018 04:20 5,4 C 5,0 C 5,6 C 92 % 1027,4 hPa 0,0 l/m 0 min 0 min 0 W/m 12,9 km/h (3 Bft) 97,87 %
23.10.2018 04:22 5,4 C 5,6 C 5,6 C 92 % 1027,4 hPa 0,0 l/m 0 min 0 min 0 W/m 9,7 km/h (2 Bft) 97,83 %
23.10.2018 04:24 5,4 C 5,6 C 5,6 C 92 % 1027,4 hPa 0,0 l/m 0 min 0 min 0 W/m 6,4 km/h (2 Bft) 97,87 %
23.10.2018 04:26 5,4 C 5,6 C 5,6 C 92 % 1027,4 hPa 0,0 l/m 0 min 0 min 0 W/m 6,4 km/h (2 Bft) 95,74 %
23.10.2018 04:28 5,4 C 5,6 C 5,6 C 92 % 1027,5 hPa 0,0 l/m 0 min 0 min 0 W/m 9,7 km/h (2 Bft) 93,62 %
23.10.2018 04:30 5,5 C 5,6 C 5,6 C 92 % 1027,5 hPa 0,0 l/m 0 min 0 min 0 W/m 6,4 km/h (2 Bft) 97,87 %
23.10.2018 04:32 5,5 C 5,6 C 5,6 C 92 % 1027,6 hPa 0,0 l/m 0 min 0 min 0 W/m 6,4 km/h (2 Bft) 97,83 %
23.10.2018 04:34 5,5 C 5,6 C 5,6 C 92 % 1027,7 hPa 0,0 l/m 0 min 0 min 0 W/m 3,2 km/h (1 Bft) 97,87 %
23.10.2018 04:38 5,6 C 5,6 C 5,6 C 92 % 1027,9 hPa 0,0 l/m 0 min 0 min 0 W/m 6,4 km/h (2 Bft) 97,87 %
23.10.2018 04:40 5,6 C 5,6 C 5,6 C 92 % 1028,0 hPa 0,0 l/m 0 min 0 min 0 W/m 6,4 km/h (2 Bft) 95,74 %
23.10.2018 04:42 5,6 C 5,6 C 5,6 C 92 % 1028,0 hPa 0,0 l/m 0 min 0 min 0 W/m 0,0 km/h (0 Bft) 95,74 %
23.10.2018 04:44 5,6 C 5,6 C 5,6 C 92 % 1028,0 hPa 0,0 l/m 0 min 0 min 0 W/m 3,2 km/h (1 Bft) 95,65 %
23.10.2018 04:46 5,6 C 5,6 C 5,6 C 92 % 1028,0 hPa 0,0 l/m 0 min 0 min 0 W/m 6,4 km/h (2 Bft) 97,87 %
23.10.2018 04:48 5,7 C 5,6 C 5,6 C 92 % 1027,9 hPa 0,0 l/m 0 min 0 min 0 W/m 3,2 km/h (1 Bft) 97,87 %
23.10.2018 04:50 5,7 C 5,6 C 5,6 C 92 % 1027,8 hPa 0,0 l/m 0 min 0 min 0 W/m 6,4 km/h (2 Bft) 97,87 %
23.10.2018 04:52 5,7 C 5,6 C 5,6 C 92 % 1027,7 hPa 0,0 l/m 0 min 0 min 0 W/m 3,2 km/h (1 Bft) 97,87 %
23.10.2018 04:54 5,7 C 5,6 C 5,6 C 92 % 1027,6 hPa 0,0 l/m 0 min 0 min 0 W/m 3,2 km/h (1 Bft) 95,74 %
23.10.2018 04:56 5,7 C 5,6 C 5,6 C 92 % 1027,4 hPa 0,0 l/m 0 min 0 min 0 W/m 3,2 km/h (1 Bft) 97,87 %
23.10.2018 04:58 5,7 C 5,6 C 5,6 C 92 % 1027,3 hPa 0,0 l/m 0 min 0 min 0 W/m 6,4 km/h (2 Bft) 97,83 %
23.10.2018 05:00 5,7 C 5,6 C 5,6 C 92 % 1027,3 hPa 0,0 l/m 0 min 0 min 0 W/m 6,4 km/h (2 Bft) 97,87 %
23.10.2018 05:02 5,7 C 5,6 C 5,6 C 92 % 1027,3 hPa 0,0 l/m 0 min 0 min 0 W/m 9,7 km/h (2 Bft) 91,49 %
23.10.2018 05:04 5,7 C 5,6 C 5,6 C 92 % 1027,3 hPa 0,0 l/m 0 min 0 min 0 W/m 6,4 km/h (2 Bft) 97,87 %
23.10.2018 05:05 5,7 C 5,6 C 5,6 C 91 % 1027,3 hPa 0,0 l/m 0 min 0 min 0 W/m 9,7 km/h (2 Bft) 98,25 %
23.10.2018 05:12 5,8 C 5,6 C 5,6 C 91 % 1027,2 hPa 0,0 l/m 0 min 0 min 0 W/m 3,2 km/h (1 Bft) 97,22 %
23.10.2018 05:14 5,8 C 5,6 C 5,6 C 91 % 1027,3 hPa 0,0 l/m 0 min 0 min 0 W/m 6,4 km/h (2 Bft) 95,74 %
23.10.2018 05:16 5,8 C 5,6 C 5,6 C 91 % 1027,3 hPa 0,0 l/m 0 min 0 min 0 W/m 6,4 km/h (2 Bft) 95,74 %
23.10.2018 05:18 5,8 C 5,6 C 5,6 C 91 % 1027,5 hPa 0,0 l/m 0 min 0 min 0 W/m 3,2 km/h (1 Bft) 97,83 %
23.10.2018 05:20 5,8 C 5,6 C 5,6 C 91 % 1027,5 hPa 0,0 l/m 0 min 0 min 0 W/m 3,2 km/h (1 Bft) 100,00 %
23.10.2018 05:22 5,8 C 5,6 C 5,6 C 91 % 1027,5 hPa 0,0 l/m 0 min 0 min 0 W/m 3,2 km/h (1 Bft) 100,00 %
23.10.2018 05:24 5,8 C 5,6 C 5,6 C 91 % 1027,4 hPa 0,0 l/m 0 min 0 min 0 W/m 9,7 km/h (2 Bft) 97,87 %
23.10.2018 05:26 5,8 C 5,6 C 5,6 C 91 % 1027,4 hPa 0,0 l/m 0 min 0 min 0 W/m 6,4 km/h (2 Bft) 97,87 %
23.10.2018 05:28 5,8 C 5,6 C 5,6 C 91 % 1027,5 hPa 0,0 l/m 0 min 0 min 0 W/m 3,2 km/h (1 Bft) 100,00 %
23.10.2018 05:30 5,8 C 5,6 C 5,6 C 91 % 1027,4 hPa 0,0 l/m 0 min 0 min 0 W/m 6,4 km/h (2 Bft) 100,00 %
23.10.2018 05:32 5,9 C 5,6 C 5,6 C 91 % 1027,2 hPa 0,0 l/m 0 min 0 min 0 W/m 3,2 km/h (1 Bft) 97,87 %
23.10.2018 05:34 5,8 C 5,6 C 5,6 C 91 % 1027,1 hPa 0,0 l/m 0 min 0 min 0 W/m 12,9 km/h (3 Bft) 100,00 %
23.10.2018 05:38 5,9 C 5,6 C 5,6 C 91 % 1026,8 hPa 0,0 l/m 0 min 0 min 0 W/m 9,7 km/h (2 Bft) 100,00 %
23.10.2018 05:40 5,8 C 5,6 C 5,6 C 91 % 1026,7 hPa 0,0 l/m 0 min 0 min 0 W/m 9,7 km/h (2 Bft) 100,00 %
23.10.2018 05:42 5,9 C 5,6 C 5,6 C 91 % 1026,6 hPa 0,0 l/m 0 min 0 min 0 W/m 6,4 km/h (2 Bft) 100,00 %
23.10.2018 05:44 5,9 C 5,6 C 5,6 C 91 % 1026,5 hPa 0,0 l/m 0 min 0 min 0 W/m 16,1 km/h (3 Bft) 97,87 %
23.10.2018 05:46 5,9 C 5,6 C 5,6 C 91 % 1026,4 hPa 0,0 l/m 0 min 0 min 0 W/m 12,9 km/h (3 Bft) 97,87 %
23.10.2018 05:48 5,9 C 5,6 C 5,6 C 91 % 1026,4 hPa 0,0 l/m 0 min 0 min 0 W/m 6,4 km/h (2 Bft) 93,62 %
23.10.2018 05:50 5,9 C 5,6 C 5,6 C 91 % 1026,2 hPa 0,0 l/m 0 min 0 min 0 W/m 9,7 km/h (2 Bft) 95,74 %
23.10.2018 05:52 5,9 C 5,6 C 5,6 C 91 % 1026,4 hPa 0,0 l/m 0 min 0 min 0 W/m 9,7 km/h (2 Bft) 95,74 %
23.10.2018 05:54 5,9 C 5,6 C 5,6 C 91 % 1026,4 hPa 0,0 l/m 0 min 0 min 0 W/m 9,7 km/h (2 Bft) 95,74 %
23.10.2018 05:56 5,9 C 5,6 C 5,6 C 91 % 1026,4 hPa 0,0 l/m 0 min 0 min 0 W/m 12,9 km/h (3 Bft) 97,87 %
23.10.2018 05:58 5,9 C 5,6 C 5,6 C 91 % 1026,4 hPa 0,0 l/m 0 min 0 min 0 W/m 3,2 km/h (1 Bft) 93,62 %
23.10.2018 06:00 5,9 C 5,6 C 5,6 C 91 % 1026,5 hPa 0,0 l/m 0 min 0 min 0 W/m 6,4 km/h (2 Bft) 95,74 %
23.10.2018 06:02 5,9 C 5,6 C 5,6 C 91 % 1026,6 hPa 0,0 l/m 0 min 0 min 0 W/m 6,4 km/h (2 Bft) 95,24 %
23.10.2018 06:04 5,9 C 5,6 C 5,6 C 91 % 1026,6 hPa 0,0 l/m 0 min 0 min 0 W/m 3,2 km/h (1 Bft) 97,83 %
23.10.2018 06:08 5,9 C 5,6 C 5,6 C 91 % 1026,5 hPa 0,0 l/m 0 min 0 min 0 W/m 6,4 km/h (2 Bft) 97,87 %
23.10.2018 06:10 6,0 C 5,6 C 5,6 C 91 % 1026,7 hPa 0,0 l/m 0 min 0 min 0 W/m 6,4 km/h (2 Bft) 95,74 %
23.10.2018 06:12 6,0 C 5,6 C 5,6 C 91 % 1026,6 hPa 0,0 l/m 0 min 0 min 0 W/m 6,4 km/h (2 Bft) 93,62 %
23.10.2018 06:14 5,9 C 5,6 C 5,6 C 91 % 1026,6 hPa 0,0 l/m 0 min 0 min 0 W/m 6,4 km/h (2 Bft) 95,65 %
23.10.2018 06:16 6,0 C 5,6 C 5,6 C 91 % 1026,5 hPa 0,0 l/m 0 min 0 min 0 W/m 6,4 km/h (2 Bft) 96,15 %
23.10.2018 06:18 5,9 C 5,6 C 5,6 C 91 % 1026,5 hPa 0,0 l/m 0 min 0 min 0 W/m 6,4 km/h (2 Bft) 95,74 %
23.10.2018 06:20 6,0 C 5,6 C 5,6 C 91 % 1026,5 hPa 0,0 l/m 0 min 0 min 0 W/m 3,2 km/h (1 Bft) 95,74 %
23.10.2018 06:22 6,0 C 5,6 C 5,6 C 91 % 1026,4 hPa 0,0 l/m 0 min 0 min 0 W/m 3,2 km/h (1 Bft) 93,62 %
23.10.2018 06:24 6,0 C 5,6 C 5,6 C 91 % 1026,3 hPa 0,0 l/m 0 min 0 min 0 W/m 6,4 km/h (2 Bft) 95,65 %
23.10.2018 06:26 6,0 C 5,6 C 5,6 C 91 % 1026,1 hPa 0,0 l/m 0 min 0 min 0 W/m 6,4 km/h (2 Bft) 93,62 %
23.10.2018 06:28 6,0 C 5,6 C 5,6 C 91 % 1026,0 hPa 0,0 l/m 0 min 0 min 0 W/m 9,7 km/h (2 Bft) 95,74 %
23.10.2018 06:30 6,1 C 5,6 C 5,6 C 91 % 1025,9 hPa 0,0 l/m 0 min 0 min 0 W/m 12,9 km/h (3 Bft) 95,74 %
23.10.2018 06:32 6,1 C 5,6 C 6,1 C 91 % 1025,9 hPa 0,0 l/m 0 min 0 min 0 W/m 16,1 km/h (3 Bft) 95,74 %
23.10.2018 06:34 6,1 C 5,6 C 5,6 C 91 % 1025,9 hPa 0,0 l/m 0 min 0 min 0 W/m 9,7 km/h (2 Bft) 95,74 %
23.10.2018 06:38 6,1 C 6,1 C 6,1 C 91 % 1025,7 hPa 0,0 l/m 0 min 0 min 0 W/m 9,7 km/h (2 Bft) 95,70 %
23.10.2018 06:40 6,1 C 6,1 C 6,1 C 91 % 1025,9 hPa 0,0 l/m 0 min 0 min 0 W/m 9,7 km/h (2 Bft) 95,74 %
23.10.2018 06:42 6,2 C 6,1 C 6,1 C 91 % 1025,8 hPa 0,0 l/m 0 min 0 min 0 W/m 9,7 km/h (2 Bft) 95,74 %
23.10.2018 06:44 6,2 C 6,1 C 6,1 C 91 % 1025,8 hPa 0,0 l/m 0 min 0 min 0 W/m 9,7 km/h (2 Bft) 95,74 %
23.10.2018 06:46 6,2 C 6,1 C 6,1 C 91 % 1025,6 hPa 0,0 l/m 0 min 0 min 0 W/m 12,9 km/h (3 Bft) 97,92 %
23.10.2018 06:48 6,2 C 6,1 C 6,1 C 91 % 1025,6 hPa 0,0 l/m 0 min 0 min 0 W/m 12,9 km/h (3 Bft) 95,65 %
23.10.2018 06:50 6,2 C 6,1 C 6,1 C 91 % 1025,5 hPa 0,0 l/m 0 min 0 min 0 W/m 9,7 km/h (2 Bft) 95,74 %
23.10.2018 06:52 6,2 C 6,1 C 6,1 C 91 % 1025,5 hPa 0,0 l/m 0 min 0 min 0 W/m 9,7 km/h (2 Bft) 93,62 %
23.10.2018 06:54 6,3 C 6,1 C 6,1 C 91 % 1025,5 hPa 0,0 l/m 0 min 0 min 0 W/m 12,9 km/h (3 Bft) 95,74 %
23.10.2018 06:56 6,3 C 6,1 C 6,1 C 91 % 1025,4 hPa 0,0 l/m 0 min 0 min 0 W/m 9,7 km/h (2 Bft) 95,74 %
23.10.2018 06:58 6,3 C 6,1 C 6,1 C 91 % 1025,3 hPa 0,0 l/m 0 min 0 min 0 W/m 9,7 km/h (2 Bft) 100,00 %
23.10.2018 07:00 6,3 C 6,1 C 6,1 C 91 % 1025,4 hPa 0,0 l/m 0 min 0 min 0 W/m 9,7 km/h (2 Bft) 100,00 %
23.10.2018 07:02 6,3 C 6,1 C 6,1 C 90 % 1025,3 hPa 0,0 l/m 0 min 0 min 0 W/m 9,7 km/h (2 Bft) 100,00 %
23.10.2018 07:04 6,3 C 6,1 C 6,1 C 90 % 1025,3 hPa 0,0 l/m 0 min 0 min 0 W/m 6,4 km/h (2 Bft) 97,87 %
23.10.2018 07:08 6,3 C 6,1 C 6,1 C 90 % 1025,1 hPa 0,0 l/m 0 min 0 min 0 W/m 16,1 km/h (3 Bft) 98,94 %
23.10.2018 07:10 6,4 C 6,1 C 6,1 C 90 % 1025,2 hPa 0,0 l/m 0 min 0 min 0 W/m 9,7 km/h (2 Bft) 97,87 %
23.10.2018 07:12 6,4 C 6,1 C 6,1 C 90 % 1025,3 hPa 0,0 l/m 0 min 0 min 0 W/m 16,1 km/h (3 Bft) 100,00 %
23.10.2018 07:14 6,4 C 6,1 C 6,1 C 90 % 1025,5 hPa 0,0 l/m 0 min 0 min 0 W/m 6,4 km/h (2 Bft) 100,00 %
23.10.2018 07:16 6,4 C 6,1 C 6,1 C 90 % 1025,5 hPa 0,0 l/m 0 min 0 min 0 W/m 6,4 km/h (2 Bft) 97,87 %
23.10.2018 07:18 6,4 C 6,1 C 6,1 C 90 % 1025,5 hPa 0,0 l/m 0 min 0 min 0 W/m 6,4 km/h (2 Bft) 97,87 %
23.10.2018 07:20 6,4 C 6,1 C 6,1 C 90 % 1025,5 hPa 0,0 l/m 0 min 0 min 0 W/m 6,4 km/h (2 Bft) 97,87 %
23.10.2018 07:22 6,4 C 6,1 C 6,1 C 90 % 1025,4 hPa 0,0 l/m 0 min 0 min 0 W/m 6,4 km/h (2 Bft) 95,74 %
23.10.2018 07:24 6,4 C 6,1 C 6,1 C 90 % 1025,1 hPa 0,0 l/m 0 min 0 min 0 W/m 6,4 km/h (2 Bft) 97,83 %
23.10.2018 07:26 6,4 C 6,1 C 6,1 C 90 % 1025,1 hPa 0,0 l/m 0 min 0 min 0 W/m 12,9 km/h (3 Bft) 95,74 %
23.10.2018 07:28 6,4 C 6,1 C 6,1 C 91 % 1025,2 hPa 0,0 l/m 0 min 0 min 0 W/m 9,7 km/h (2 Bft) 97,87 %
23.10.2018 07:30 6,5 C 6,1 C 6,1 C 91 % 1025,4 hPa 0,0 l/m 0 min 0 min 0 W/m 9,7 km/h (2 Bft) 97,14 %
23.10.2018 07:32 6,5 C 6,1 C 6,1 C 91 % 1025,5 hPa 0,0 l/m 0 min 0 min 0 W/m 6,4 km/h (2 Bft) 95,00 %
23.10.2018 07:34 6,5 C 6,1 C 6,1 C 91 % 1025,3 hPa 0,0 l/m 0 min 0 min 0 W/m 6,4 km/h (2 Bft) 97,14 %
23.10.2018 07:38 6,6 C 6,1 C 6,1 C 91 % 1025,1 hPa 0,0 l/m 0 min 0 min 0 W/m 6,4 km/h (2 Bft) 96,77 %
23.10.2018 07:40 6,6 C 6,1 C 6,1 C 91 % 1025,0 hPa 0,0 l/m 0 min 0 min 0 W/m 6,4 km/h (2 Bft) 96,61 %
23.10.2018 07:42 6,6 C 6,7 C 6,7 C 91 % 1025,1 hPa 0,0 l/m 0 min 0 min 0 W/m 6,4 km/h (2 Bft) 97,14 %
23.10.2018 07:44 6,6 C 6,7 C 6,7 C 91 % 1025,1 hPa 0,0 l/m 0 min 0 min 0 W/m 16,1 km/h (3 Bft) 95,74 %
23.10.2018 07:46 6,7 C 6,7 C 6,7 C 91 % 1025,0 hPa 0,0 l/m 0 min 0 min 0 W/m 6,4 km/h (2 Bft) 97,92 %
23.10.2018 07:48 6,7 C 6,7 C 6,7 C 91 % 1025,0 hPa 0,0 l/m 0 min 0 min 0 W/m 9,7 km/h (2 Bft) 98,28 %
23.10.2018 07:50 6,7 C 6,7 C 6,7 C 91 % 1025,0 hPa 0,0 l/m 0 min 0 min 0 W/m 12,9 km/h (3 Bft) 97,87 %
23.10.2018 07:52 6,7 C 6,7 C 6,7 C 91 % 1025,0 hPa 0,0 l/m 0 min 0 min 0 W/m 12,9 km/h (3 Bft) 93,62 %
23.10.2018 07:54 6,8 C 6,7 C 6,7 C 91 % 1025,1 hPa 0,0 l/m 0 min 0 min 0 W/m 16,1 km/h (3 Bft) 95,65 %
23.10.2018 07:56 6,8 C 6,7 C 6,7 C 91 % 1025,1 hPa 0,0 l/m 0 min 0 min 0 W/m 12,9 km/h (3 Bft) 98,31 %
23.10.2018 07:58 6,8 C 6,7 C 6,7 C 91 % 1025,2 hPa 0,0 l/m 0 min 0 min 0 W/m 12,9 km/h (3 Bft) 97,87 %
23.10.2018 08:00 6,9 C 6,7 C 6,7 C 91 % 1025,1 hPa 0,0 l/m 0 min 0 min 0 W/m 6,4 km/h (2 Bft) 93,62 %
23.10.2018 08:02 6,9 C 6,7 C 6,7 C 91 % 1024,9 hPa 0,0 l/m 0 min 0 min 0 W/m 6,4 km/h (2 Bft) 93,88 %
23.10.2018 08:04 6,9 C 6,7 C 6,7 C 91 % 1025,0 hPa 0,0 l/m 0 min 0 min 0 W/m 9,7 km/h (2 Bft) 95,83 %
23.10.2018 08:08 7,0 C 7,2 C 6,7 C 91 % 1024,8 hPa 0,0 l/m 0 min 0 min 0 W/m 19,3 km/h (3 Bft) 98,94 %
23.10.2018 08:10 7,1 C 7,2 C 6,7 C 91 % 1024,8 hPa 0,0 l/m 0 min 0 min 0 W/m 6,4 km/h (2 Bft) 100,00 %
23.10.2018 08:12 7,1 C 7,2 C 6,7 C 90 % 1024,9 hPa 0,0 l/m 0 min 0 min 0 W/m 9,7 km/h (2 Bft) 100,00 %
23.10.2018 08:14 7,2 C 7,2 C 6,7 C 90 % 1024,9 hPa 0,0 l/m 0 min 0 min 0 W/m 12,9 km/h (3 Bft) 100,00 %
23.10.2018 08:16 7,2 C 7,2 C 6,7 C 90 % 1024,9 hPa 0,0 l/m 0 min 0 min 0 W/m 12,9 km/h (3 Bft) 97,96 %
23.10.2018 08:18 7,2 C 7,2 C 6,7 C 90 % 1025,0 hPa 0,0 l/m 0 min 0 min 4 W/m 12,9 km/h (3 Bft) 93,62 %
23.10.2018 08:20 7,3 C 7,2 C 6,7 C 90 % 1025,2 hPa 0,0 l/m 0 min 0 min 5 W/m 9,7 km/h (2 Bft) 100,00 %
23.10.2018 08:22 7,3 C 7,2 C 6,7 C 90 % 1025,4 hPa 0,0 l/m 0 min 0 min 7 W/m 9,7 km/h (2 Bft) 97,87 %
23.10.2018 08:24 7,3 C 7,2 C 7,2 C 90 % 1025,4 hPa 0,0 l/m 0 min 0 min 7 W/m 9,7 km/h (2 Bft) 100,00 %
23.10.2018 08:26 7,4 C 7,2 C 7,2 C 90 % 1025,5 hPa 0,0 l/m 0 min 0 min 9 W/m 9,7 km/h (2 Bft) 100,00 %
23.10.2018 08:28 7,4 C 7,2 C 7,2 C 90 % 1025,3 hPa 0,0 l/m 0 min 0 min 10 W/m 6,4 km/h (2 Bft) 97,87 %
23.10.2018 08:30 7,4 C 7,2 C 7,2 C 90 % 1025,3 hPa 0,0 l/m 0 min 0 min 11 W/m 6,4 km/h (2 Bft) 97,87 %
23.10.2018 08:32 7,5 C 7,2 C 7,2 C 90 % 1025,4 hPa 0,0 l/m 0 min 0 min 11 W/m 9,7 km/h (2 Bft) 100,00 %
23.10.2018 08:34 7,5 C 7,2 C 7,2 C 90 % 1025,5 hPa 0,0 l/m 0 min 0 min 9 W/m 16,1 km/h (3 Bft) 97,87 %
23.10.2018 08:38 7,6 C 7,8 C 7,2 C 90 % 1025,1 hPa 0,0 l/m 0 min 0 min 11 W/m 12,9 km/h (3 Bft) 98,94 %
23.10.2018 08:40 7,7 C 7,8 C 7,2 C 90 % 1024,9 hPa 0,0 l/m 0 min 0 min 12 W/m 25,7 km/h (4 Bft) 100,00 %
23.10.2018 08:42 7,7 C 7,8 C 7,2 C 89 % 1024,9 hPa 0,0 l/m 0 min 0 min 12 W/m 9,7 km/h (2 Bft) 100,00 %
23.10.2018 08:44 7,7 C 7,8 C 7,2 C 89 % 1024,8 hPa 0,0 l/m 0 min 0 min 12 W/m 9,7 km/h (2 Bft) 100,00 %
23.10.2018 08:46 7,8 C 7,8 C 7,2 C 89 % 1024,8 hPa 0,0 l/m 0 min 0 min 12 W/m 9,7 km/h (2 Bft) 100,00 %
23.10.2018 08:48 7,8 C 7,8 C 7,2 C 89 % 1024,9 hPa 0,0 l/m 0 min 0 min 12 W/m 9,7 km/h (2 Bft) 97,83 %
23.10.2018 08:50 7,9 C 7,8 C 7,2 C 89 % 1024,8 hPa 0,0 l/m 0 min 0 min 12 W/m 16,1 km/h (3 Bft) 97,87 %
23.10.2018 08:52 7,9 C 7,8 C 7,2 C 89 % 1024,8 hPa 0,0 l/m 0 min 0 min 13 W/m 22,5 km/h (4 Bft) 93,62 %
23.10.2018 08:54 7,9 C 7,8 C 7,2 C 89 % 1024,9 hPa 0,0 l/m 0 min 0 min 13 W/m 16,1 km/h (3 Bft) 97,87 %
23.10.2018 08:56 8,0 C 7,8 C 7,2 C 89 % 1024,8 hPa 0,0 l/m 0 min 0 min 14 W/m 16,1 km/h (3 Bft) 97,87 %
23.10.2018 08:58 8,0 C 7,8 C 7,2 C 89 % 1024,7 hPa 0,0 l/m 0 min 0 min 14 W/m 9,7 km/h (2 Bft) 97,87 %
23.10.2018 09:00 8,1 C 7,8 C 7,2 C 89 % 1024,9 hPa 0,0 l/m 0 min 0 min 15 W/m 16,1 km/h (3 Bft) 97,83 %
23.10.2018 09:02 8,1 C 7,8 C 7,2 C 89 % 1024,9 hPa 0,0 l/m 0 min 0 min 15 W/m 16,1 km/h (3 Bft) 95,35 %
23.10.2018 09:04 8,1 C 7,8 C 7,8 C 89 % 1024,7 hPa 0,0 l/m 0 min 0 min 16 W/m 9,7 km/h (2 Bft) 97,87 %
23.10.2018 09:08 8,2 C 7,8 C 7,8 C 89 % 1024,6 hPa 0,0 l/m 0 min 0 min 22 W/m 19,3 km/h (3 Bft) 97,87 %
23.10.2018 09:10 8,2 C 7,8 C 7,8 C 89 % 1024,5 hPa 0,0 l/m 0 min 0 min 28 W/m 16,1 km/h (3 Bft) 95,74 %
23.10.2018 09:12 8,2 C 7,8 C 7,8 C 88 % 1024,3 hPa 0,0 l/m 0 min 0 min 35 W/m 9,7 km/h (2 Bft) 95,65 %
23.10.2018 09:14 8,2 C 7,8 C 7,8 C 88 % 1024,2 hPa 0,0 l/m 0 min 0 min 37 W/m 6,4 km/h (2 Bft) 97,87 %
23.10.2018 09:16 8,2 C 7,8 C 7,8 C 88 % 1024,2 hPa 0,0 l/m 0 min 0 min 42 W/m 12,9 km/h (3 Bft) 97,87 %
23.10.2018 09:18 8,3 C 7,8 C 7,8 C 88 % 1024,3 hPa 0,0 l/m 0 min 0 min 43 W/m 19,3 km/h (3 Bft) 97,87 %
23.10.2018 09:20 8,3 C 8,3 C 7,8 C 88 % 1024,3 hPa 0,0 l/m 0 min 0 min 43 W/m 12,9 km/h (3 Bft) 97,87 %
23.10.2018 09:22 8,3 C 8,3 C 7,8 C 88 % 1024,3 hPa 0,0 l/m 0 min 0 min 42 W/m 6,4 km/h (2 Bft) 97,83 %
23.10.2018 09:24 8,3 C 8,3 C 7,8 C 88 % 1024,3 hPa 0,0 l/m 0 min 0 min 42 W/m 16,1 km/h (3 Bft) 97,87 %
23.10.2018 09:26 8,4 C 8,3 C 7,8 C 88 % 1024,1 hPa 0,0 l/m 0 min 0 min 50 W/m 12,9 km/h (3 Bft) 95,74 %
23.10.2018 09:28 8,4 C 8,3 C 7,8 C 88 % 1024,2 hPa 0,0 l/m 0 min 0 min 50 W/m 9,7 km/h (2 Bft) 97,87 %
23.10.2018 09:30 8,4 C 8,3 C 7,8 C 88 % 1024,3 hPa 0,0 l/m 0 min 0 min 49 W/m 6,4 km/h (2 Bft) 98,08 %
23.10.2018 09:32 8,4 C 8,3 C 7,8 C 88 % 1024,3 hPa 0,0 l/m 0 min 0 min 47 W/m 22,5 km/h (4 Bft) 97,78 %
23.10.2018 09:34 8,4 C 8,3 C 7,8 C 88 % 1024,4 hPa 0,0 l/m 0 min 0 min 46 W/m 12,9 km/h (3 Bft) 97,83 %
23.10.2018 09:38 8,5 C 8,3 C 7,8 C 88 % 1024,2 hPa 0,0 l/m 0 min 0 min 45 W/m 12,9 km/h (3 Bft) 98,94 %
23.10.2018 09:40 8,6 C 8,3 C 7,8 C 88 % 1024,1 hPa 0,0 l/m 0 min 0 min 43 W/m 9,7 km/h (2 Bft) 97,87 %
23.10.2018 09:42 8,6 C 8,3 C 7,8 C 88 % 1024,2 hPa 0,0 l/m 0 min 0 min 44 W/m 9,7 km/h (2 Bft) 100,00 %
23.10.2018 09:44 8,6 C 8,3 C 7,8 C 88 % 1024,3 hPa 0,0 l/m 0 min 0 min 43 W/m 9,7 km/h (2 Bft) 97,87 %
23.10.2018 09:46 8,6 C 8,3 C 7,8 C 88 % 1024,3 hPa 0,0 l/m 0 min 0 min 46 W/m 12,9 km/h (3 Bft) 97,83 %
23.10.2018 09:48 8,7 C 8,3 C 7,8 C 88 % 1024,4 hPa 0,0 l/m 0 min 0 min 47 W/m 9,7 km/h (2 Bft) 97,87 %
23.10.2018 09:50 8,7 C 8,3 C 7,8 C 88 % 1024,4 hPa 0,0 l/m 0 min 0 min 48 W/m 12,9 km/h (3 Bft) 97,87 %
23.10.2018 09:52 8,7 C 8,3 C 7,8 C 88 % 1024,4 hPa 0,0 l/m 0 min 0 min 43 W/m 9,7 km/h (2 Bft) 97,87 %
23.10.2018 09:54 8,7 C 8,3 C 7,8 C 88 % 1024,4 hPa 0,0 l/m 0 min 0 min 45 W/m 12,9 km/h (3 Bft) 97,87 %
23.10.2018 09:56 8,7 C 8,3 C 7,8 C 88 % 1024,3 hPa 0,0 l/m 0 min 0 min 45 W/m 16,1 km/h (3 Bft) 95,65 %
23.10.2018 09:58 8,8 C 8,3 C 7,8 C 88 % 1024,2 hPa 0,0 l/m 0 min 0 min 42 W/m 9,7 km/h (2 Bft) 97,87 %
23.10.2018 10:00 8,8 C 8,3 C 7,8 C 88 % 1024,2 hPa 0,0 l/m 0 min 0 min 43 W/m 9,7 km/h (2 Bft) 93,62 %
23.10.2018 10:02 8,8 C 8,3 C 7,8 C 88 % 1024,2 hPa 0,0 l/m 0 min 0 min 42 W/m 22,5 km/h (4 Bft) 95,92 %
23.10.2018 10:04 8,8 C 8,3 C 7,8 C 88 % 1024,2 hPa 0,0 l/m 0 min 0 min 48 W/m 12,9 km/h (3 Bft) 95,74 %
23.10.2018 10:08 8,8 C 8,3 C 8,3 C 87 % 1024,1 hPa 0,0 l/m 0 min 0 min 43 W/m 12,9 km/h (3 Bft) 95,74 %
23.10.2018 10:10 8,8 C 8,3 C 8,3 C 87 % 1024,2 hPa 0,0 l/m 0 min 0 min 42 W/m 9,7 km/h (2 Bft) 95,65 %
23.10.2018 10:12 8,9 C 8,3 C 8,3 C 87 % 1024,2 hPa 0,0 l/m 0 min 0 min 47 W/m 9,7 km/h (2 Bft) 95,74 %
23.10.2018 10:14 8,9 C 8,9 C 8,3 C 87 % 1024,2 hPa 0,0 l/m 0 min 0 min 47 W/m 12,9 km/h (3 Bft) 95,74 %
23.10.2018 10:16 8,9 C 8,9 C 8,3 C 87 % 1024,1 hPa 0,0 l/m 0 min 0 min 51 W/m 12,9 km/h (3 Bft) 93,62 %
23.10.2018 10:18 8,9 C 8,9 C 8,3 C 87 % 1024,1 hPa 0,0 l/m 0 min 0 min 54 W/m 9,7 km/h (2 Bft) 95,74 %
23.10.2018 10:20 8,9 C 8,9 C 8,3 C 88 % 1024,1 hPa 0,0 l/m 0 min 0 min 58 W/m 9,7 km/h (2 Bft) 95,74 %
23.10.2018 10:22 8,9 C 8,9 C 8,3 C 88 % 1024,1 hPa 0,0 l/m 0 min 0 min 55 W/m 12,9 km/h (3 Bft) 93,48 %
23.10.2018 10:24 8,9 C 8,9 C 8,3 C 88 % 1024,1 hPa 0,0 l/m 0 min 0 min 54 W/m 9,7 km/h (2 Bft) 95,74 %
23.10.2018 10:26 9,0 C 8,9 C 8,3 C 88 % 1024,1 hPa 0,0 l/m 0 min 0 min 48 W/m 16,1 km/h (3 Bft) 91,49 %
23.10.2018 10:28 9,0 C 8,9 C 8,3 C 88 % 1024,2 hPa 0,0 l/m 0 min 0 min 49 W/m 12,9 km/h (3 Bft) 95,74 %
23.10.2018 10:30 9,1 C 8,9 C 8,3 C 88 % 1024,1 hPa 0,0 l/m 0 min 0 min 51 W/m 16,1 km/h (3 Bft) 95,74 %
23.10.2018 10:32 9,1 C 8,9 C 8,3 C 88 % 1024,0 hPa 0,0 l/m 0 min 0 min 53 W/m 9,7 km/h (2 Bft) 95,65 %
23.10.2018 10:34 9,1 C 8,9 C 8,3 C 88 % 1024,0 hPa 0,0 l/m 0 min 0 min 44 W/m 16,1 km/h (3 Bft) 95,74 %
23.10.2018 10:38 9,1 C 8,9 C 8,3 C 88 % 1024,0 hPa 0,0 l/m 0 min 0 min 53 W/m 22,5 km/h (4 Bft) 97,87 %
23.10.2018 10:40 9,2 C 9,4 C 8,9 C 88 % 1023,9 hPa 0,0 l/m 0 min 0 min 58 W/m 12,9 km/h (3 Bft) 95,74 %
23.10.2018 10:42 9,2 C 9,4 C 8,9 C 88 % 1023,9 hPa 0,0 l/m 0 min 0 min 57 W/m 9,7 km/h (2 Bft) 100,00 %
23.10.2018 10:44 9,2 C 9,4 C 8,9 C 88 % 1023,8 hPa 0,0 l/m 0 min 0 min 58 W/m 12,9 km/h (3 Bft) 93,48 %
23.10.2018 10:46 9,3 C 9,4 C 8,9 C 88 % 1023,7 hPa 0,0 l/m 0 min 0 min 62 W/m 9,7 km/h (2 Bft) 97,78 %
23.10.2018 10:48 9,4 C 9,4 C 8,9 C 88 % 1023,8 hPa 0,0 l/m 0 min 0 min 61 W/m 29,0 km/h (5 Bft) 97,87 %
23.10.2018 10:50 9,4 C 9,4 C 8,9 C 88 % 1023,7 hPa 0,0 l/m 0 min 0 min 72 W/m 12,9 km/h (3 Bft) 95,74 %
23.10.2018 10:52 9,4 C 9,4 C 8,9 C 88 % 1023,7 hPa 0,0 l/m 0 min 0 min 57 W/m 12,9 km/h (3 Bft) 100,00 %
23.10.2018 10:54 9,5 C 9,4 C 8,9 C 88 % 1023,7 hPa 0,0 l/m 0 min 0 min 54 W/m 12,9 km/h (3 Bft) 100,00 %
23.10.2018 10:56 9,6 C 9,4 C 8,9 C 87 % 1023,6 hPa 0,0 l/m 0 min 0 min 58 W/m 19,3 km/h (3 Bft) 100,00 %
23.10.2018 10:58 9,6 C 10,0 C 9,4 C 87 % 1023,6 hPa 0,0 l/m 0 min 0 min 77 W/m 6,4 km/h (2 Bft) 100,00 %
23.10.2018 11:00 9,7 C 9,4 C 9,4 C 87 % 1023,7 hPa 0,0 l/m 0 min 0 min 67 W/m 12,9 km/h (3 Bft) 100,00 %
23.10.2018 11:02 9,7 C 9,4 C 9,4 C 87 % 1023,7 hPa 0,0 l/m 0 min 0 min 59 W/m 16,1 km/h (3 Bft) 100,00 %
23.10.2018 11:04 9,7 C 9,4 C 9,4 C 87 % 1023,5 hPa 0,0 l/m 0 min 0 min 54 W/m 9,7 km/h (2 Bft) 100,00 %
23.10.2018 11:08 9,8 C 10,0 C 9,4 C 87 % 1023,5 hPa 0,0 l/m 0 min 0 min 63 W/m 16,1 km/h (3 Bft) 100,00 %
23.10.2018 11:10 9,8 C 10,0 C 9,4 C 87 % 1023,5 hPa 0,0 l/m 0 min 0 min 89 W/m 19,3 km/h (3 Bft) 100,00 %
23.10.2018 11:12 9,8 C 10,0 C 9,4 C 86 % 1023,5 hPa 0,0 l/m 0 min 0 min 79 W/m 12,9 km/h (3 Bft) 97,87 %
23.10.2018 11:14 9,9 C 10,0 C 9,4 C 86 % 1023,5 hPa 0,0 l/m 0 min 0 min 87 W/m 9,7 km/h (2 Bft) 100,00 %
23.10.2018 11:16 9,9 C 10,0 C 9,4 C 86 % 1023,3 hPa 0,0 l/m 0 min 0 min 89 W/m 19,3 km/h (3 Bft) 100,00 %
23.10.2018 11:18 9,9 C 10,0 C 9,4 C 86 % 1023,4 hPa 0,0 l/m 0 min 0 min 71 W/m 9,7 km/h (2 Bft) 100,00 %
23.10.2018 11:20 10,0 C 10,0 C 9,4 C 86 % 1023,4 hPa 0,0 l/m 0 min 0 min 60 W/m 19,3 km/h (3 Bft) 97,87 %
23.10.2018 11:22 10,0 C 10,0 C 9,4 C 86 % 1023,4 hPa 0,0 l/m 0 min 0 min 58 W/m 9,7 km/h (2 Bft) 100,00 %
23.10.2018 11:24 10,0 C 10,0 C 9,4 C 86 % 1023,3 hPa 0,0 l/m 0 min 0 min 67 W/m 19,3 km/h (3 Bft) 100,00 %
23.10.2018 11:26 10,1 C 10,0 C 9,4 C 85 % 1023,3 hPa 0,0 l/m 0 min 0 min 53 W/m 12,9 km/h (3 Bft) 95,74 %
23.10.2018 11:28 10,1 C 10,0 C 9,4 C 85 % 1023,3 hPa 0,0 l/m 0 min 0 min 60 W/m 22,5 km/h (4 Bft) 100,00 %
23.10.2018 11:30 10,1 C 10,0 C 9,4 C 85 % 1023,3 hPa 0,0 l/m 0 min 0 min 69 W/m 16,1 km/h (3 Bft) 100,00 %
23.10.2018 11:32 10,1 C 10,0 C 9,4 C 85 % 1023,2 hPa 0,0 l/m 0 min 0 min 67 W/m 12,9 km/h (3 Bft) 100,00 %
23.10.2018 11:34 10,1 C 10,0 C 9,4 C 85 % 1023,2 hPa 0,0 l/m 0 min 0 min 67 W/m 9,7 km/h (2 Bft) 97,87 %
23.10.2018 11:38 10,1 C 10,0 C 9,4 C 85 % 1023,1 hPa 0,0 l/m 0 min 0 min 84 W/m 12,9 km/h (3 Bft) 96,81 %
23.10.2018 11:40 10,1 C 10,0 C 9,4 C 85 % 1023,0 hPa 0,0 l/m 0 min 0 min 82 W/m 12,9 km/h (3 Bft) 100,00 %
23.10.2018 11:42 10,1 C 10,0 C 9,4 C 85 % 1023,1 hPa 0,0 l/m 0 min 0 min 79 W/m 12,9 km/h (3 Bft) 95,74 %
23.10.2018 11:44 10,1 C 10,0 C 9,4 C 85 % 1023,0 hPa 0,0 l/m 0 min 0 min 88 W/m 12,9 km/h (3 Bft) 97,83 %
23.10.2018 11:46 10,2 C 10,0 C 9,4 C 85 % 1023,0 hPa 0,0 l/m 0 min 0 min 98 W/m 16,1 km/h (3 Bft) 100,00 %
23.10.2018 11:48 10,2 C 10,0 C 9,4 C 85 % 1023,1 hPa 0,0 l/m 0 min 0 min 87 W/m 12,9 km/h (3 Bft) 100,00 %
23.10.2018 11:50 10,2 C 10,0 C 9,4 C 85 % 1023,2 hPa 0,0 l/m 0 min 0 min 122 W/m 16,1 km/h (3 Bft) 100,00 %
23.10.2018 11:52 10,2 C 10,0 C 9,4 C 85 % 1023,0 hPa 0,0 l/m 0 min 0 min 151 W/m 16,1 km/h (3 Bft) 97,87 %
23.10.2018 11:54 10,2 C 10,6 C 9,4 C 85 % 1023,1 hPa 0,0 l/m 0 min 0 min 179 W/m 16,1 km/h (3 Bft) 95,74 %
23.10.2018 11:56 10,2 C 10,6 C 9,4 C 85 % 1023,1 hPa 0,0 l/m 0 min 0 min 179 W/m 22,5 km/h (4 Bft) 97,83 %
23.10.2018 11:58 10,3 C 10,6 C 9,4 C 85 % 1023,0 hPa 0,0 l/m 0 min 0 min 166 W/m 16,1 km/h (3 Bft) 97,87 %
23.10.2018 12:00 10,3 C 10,6 C 9,4 C 85 % 1023,0 hPa 0,0 l/m 0 min 0 min 149 W/m 16,1 km/h (3 Bft) 97,87 %
23.10.2018 12:02 10,3 C 10,6 C 9,4 C 84 % 1022,8 hPa 0,0 l/m 0 min 0 min 129 W/m 16,1 km/h (3 Bft) 97,87 %
23.10.2018 12:04 10,4 C 10,6 C 9,4 C 84 % 1022,8 hPa 0,0 l/m 0 min 0 min 124 W/m 22,5 km/h (4 Bft) 97,87 %
23.10.2018 12:08 10,4 C 10,6 C 9,4 C 84 % 1022,7 hPa 0,0 l/m 0 min 0 min 110 W/m 19,3 km/h (3 Bft) 96,77 %
23.10.2018 12:10 10,4 C 10,6 C 9,4 C 84 % 1022,7 hPa 0,0 l/m 0 min 0 min 127 W/m 16,1 km/h (3 Bft) 97,87 %
23.10.2018 12:12 10,4 C 10,6 C 10,0 C 84 % 1022,6 hPa 0,0 l/m 0 min 0 min 205 W/m 22,5 km/h (4 Bft) 97,87 %
23.10.2018 12:14 10,4 C 10,6 C 10,0 C 84 % 1022,7 hPa 0,0 l/m 0 min 0 min 189 W/m 16,1 km/h (3 Bft) 97,87 %
23.10.2018 12:16 10,5 C 10,6 C 10,0 C 84 % 1022,7 hPa 0,0 l/m 0 min 0 min 143 W/m 12,9 km/h (3 Bft) 97,87 %
23.10.2018 12:18 10,6 C 10,6 C 10,0 C 84 % 1022,7 hPa 0,0 l/m 0 min 0 min 110 W/m 16,1 km/h (3 Bft) 97,83 %
23.10.2018 12:20 10,6 C 10,6 C 10,0 C 84 % 1022,7 hPa 0,0 l/m 0 min 0 min 137 W/m 12,9 km/h (3 Bft) 97,87 %
23.10.2018 12:22 10,6 C 11,1 C 10,0 C 84 % 1022,7 hPa 0,0 l/m 2 min 0 min 232 W/m 12,9 km/h (3 Bft) 97,87 %
23.10.2018 12:24 10,7 C 11,1 C 10,0 C 84 % 1022,6 hPa 0,0 l/m 2 min 0 min 258 W/m 22,5 km/h (4 Bft) 95,74 %
23.10.2018 12:26 10,7 C 11,7 C 10,0 C 84 % 1022,6 hPa 0,0 l/m 2 min 0 min 294 W/m 12,9 km/h (3 Bft) 96,00 %
23.10.2018 12:28 10,8 C 11,7 C 10,6 C 84 % 1022,6 hPa 0,0 l/m 2 min 0 min 245 W/m 16,1 km/h (3 Bft) 100,00 %
23.10.2018 12:30 10,8 C 11,7 C 10,6 C 84 % 1022,5 hPa 0,0 l/m 0 min 0 min 156 W/m 12,9 km/h (3 Bft) 95,65 %
23.10.2018 12:32 10,9 C 11,1 C 10,0 C 84 % 1022,2 hPa 0,0 l/m 0 min 0 min 137 W/m 22,5 km/h (4 Bft) 93,88 %
23.10.2018 12:34 10,9 C 11,7 C 10,0 C 84 % 1022,1 hPa 0,0 l/m 0 min 0 min 181 W/m 9,7 km/h (2 Bft) 94,55 %
23.10.2018 12:38 11,1 C 12,2 C 10,6 C 84 % 1022,1 hPa 0,0 l/m 4 min 0 min 307 W/m 25,7 km/h (4 Bft) 95,35 %
23.10.2018 12:40 11,1 C 12,2 C 10,6 C 84 % 1022,3 hPa 0,0 l/m 2 min 0 min 294 W/m 16,1 km/h (3 Bft) 97,87 %
23.10.2018 12:42 11,2 C 12,2 C 10,6 C 83 % 1022,2 hPa 0,0 l/m 2 min 0 min 308 W/m 25,7 km/h (4 Bft) 95,65 %
23.10.2018 12:44 11,3 C 12,8 C 10,6 C 83 % 1022,2 hPa 0,0 l/m 2 min 0 min 325 W/m 16,1 km/h (3 Bft) 95,74 %
23.10.2018 12:46 11,4 C 12,2 C 10,6 C 83 % 1022,2 hPa 0,0 l/m 2 min 0 min 258 W/m 12,9 km/h (3 Bft) 95,74 %
23.10.2018 12:48 11,4 C 11,7 C 10,6 C 83 % 1022,1 hPa 0,0 l/m 0 min 0 min 160 W/m 19,3 km/h (3 Bft) 97,87 %
23.10.2018 12:50 11,4 C 11,7 C 10,6 C 83 % 1022,1 hPa 0,0 l/m 0 min 0 min 162 W/m 22,5 km/h (4 Bft) 94,92 %
23.10.2018 12:52 11,5 C 11,7 C 10,6 C 82 % 1022,2 hPa 0,0 l/m 0 min 0 min 132 W/m 16,1 km/h (3 Bft) 97,14 %
23.10.2018 12:54 11,5 C 11,1 C 10,6 C 82 % 1022,1 hPa 0,0 l/m 0 min 0 min 100 W/m 22,5 km/h (4 Bft) 95,65 %
23.10.2018 12:56 11,5 C 11,1 C 10,6 C 82 % 1022,2 hPa 0,0 l/m 0 min 0 min 119 W/m 16,1 km/h (3 Bft) 93,62 %
23.10.2018 12:58 11,5 C 11,7 C 10,6 C 82 % 1022,1 hPa 0,0 l/m 0 min 0 min 186 W/m 9,7 km/h (2 Bft) 95,74 %
23.10.2018 13:00 11,5 C 12,2 C 10,6 C 82 % 1022,2 hPa 0,0 l/m 2 min 0 min 285 W/m 16,1 km/h (3 Bft) 95,74 %
23.10.2018 13:02 11,6 C 12,8 C 11,1 C 82 % 1022,1 hPa 0,0 l/m 2 min 0 min 504 W/m 19,3 km/h (3 Bft) 95,74 %
23.10.2018 13:04 11,7 C 12,8 C 11,1 C 83 % 1022,0 hPa 0,0 l/m 2 min 0 min 412 W/m 12,9 km/h (3 Bft) 95,74 %
23.10.2018 13:08 11,8 C 12,8 C 11,1 C 83 % 1021,8 hPa 0,0 l/m 4 min 0 min 231 W/m 12,9 km/h (3 Bft) 95,74 %
23.10.2018 13:10 11,9 C 12,8 C 11,1 C 82 % 1021,6 hPa 0,0 l/m 0 min 0 min 204 W/m 9,7 km/h (2 Bft) 91,49 %
23.10.2018 13:12 11,9 C 12,2 C 11,1 C 82 % 1021,5 hPa 0,0 l/m 0 min 0 min 209 W/m 16,1 km/h (3 Bft) 95,74 %
23.10.2018 13:14 11,9 C 12,2 C 11,1 C 82 % 1021,2 hPa 0,0 l/m 0 min 0 min 196 W/m 22,5 km/h (4 Bft) 97,87 %
23.10.2018 13:16 12,0 C 12,2 C 11,1 C 82 % 1021,4 hPa 0,0 l/m 0 min 0 min 153 W/m 16,1 km/h (3 Bft) 97,87 %
23.10.2018 13:18 12,1 C 12,2 C 11,1 C 82 % 1021,4 hPa 0,0 l/m 0 min 0 min 134 W/m 22,5 km/h (4 Bft) 97,83 %
23.10.2018 13:20 12,1 C 12,2 C 11,1 C 81 % 1021,5 hPa 0,0 l/m 2 min 0 min 231 W/m 19,3 km/h (3 Bft) 95,74 %
23.10.2018 13:22 12,1 C 12,2 C 11,1 C 81 % 1021,4 hPa 0,0 l/m 2 min 0 min 256 W/m 19,3 km/h (3 Bft) 95,74 %
23.10.2018 13:24 12,1 C 12,2 C 11,1 C 81 % 1021,5 hPa 0,0 l/m 0 min 0 min 221 W/m 19,3 km/h (3 Bft) 97,87 %
23.10.2018 13:26 12,2 C 12,2 C 11,1 C 81 % 1021,3 hPa 0,0 l/m 0 min 0 min 199 W/m 19,3 km/h (3 Bft) 97,87 %
23.10.2018 13:28 12,2 C 12,8 C 11,1 C 81 % 1021,4 hPa 0,0 l/m 2 min 0 min 279 W/m 19,3 km/h (3 Bft) 97,87 %
23.10.2018 13:30 12,2 C 12,8 C 11,7 C 81 % 1021,4 hPa 0,0 l/m 2 min 0 min 384 W/m 16,1 km/h (3 Bft) 97,83 %
23.10.2018 13:32 12,3 C 13,3 C 11,7 C 81 % 1021,2 hPa 0,0 l/m 2 min 0 min 567 W/m 25,7 km/h (4 Bft) 97,87 %
23.10.2018 13:34 12,4 C 13,9 C 11,7 C 81 % 1021,3 hPa 0,0 l/m 2 min 0 min 609 W/m 22,5 km/h (4 Bft) 93,62 %
23.10.2018 13:38 12,7 C 13,9 C 12,2 C 81 % 1021,1 hPa 0,0 l/m 4 min 0 min 479 W/m 22,5 km/h (4 Bft) 97,87 %
23.10.2018 13:40 12,8 C 13,9 C 12,2 C 80 % 1021,1 hPa 0,0 l/m 2 min 0 min 565 W/m 29,0 km/h (5 Bft) 97,87 %
23.10.2018 13:42 12,9 C 14,4 C 12,2 C 80 % 1021,0 hPa 0,0 l/m 2 min 0 min 498 W/m 19,3 km/h (3 Bft) 97,83 %
23.10.2018 13:44 13,0 C 13,9 C 12,2 C 80 % 1021,0 hPa 0,0 l/m 2 min 0 min 395 W/m 29,0 km/h (5 Bft) 97,87 %
23.10.2018 13:46 13,1 C 13,9 C 12,2 C 79 % 1020,9 hPa 0,0 l/m 2 min 0 min 312 W/m 19,3 km/h (3 Bft) 97,67 %
23.10.2018 13:48 13,2 C 13,3 C 12,2 C 79 % 1021,1 hPa 0,0 l/m 2 min 0 min 226 W/m 16,1 km/h (3 Bft) 97,87 %
23.10.2018 13:50 13,2 C 13,3 C 12,2 C 79 % 1021,0 hPa 0,0 l/m 2 min 0 min 254 W/m 19,3 km/h (3 Bft) 100,00 %
23.10.2018 13:52 13,2 C 13,9 C 12,2 C 79 % 1021,0 hPa 0,0 l/m 2 min 0 min 422 W/m 16,1 km/h (3 Bft) 100,00 %
23.10.2018 13:54 13,3 C 14,4 C 12,2 C 79 % 1020,9 hPa 0,0 l/m 2 min 0 min 481 W/m 22,5 km/h (4 Bft) 100,00 %
23.10.2018 13:56 13,4 C 14,4 C 12,8 C 79 % 1020,9 hPa 0,0 l/m 2 min 0 min 371 W/m 16,1 km/h (3 Bft) 97,87 %
23.10.2018 13:58 13,5 C 13,9 C 12,2 C 78 % 1020,8 hPa 0,0 l/m 0 min 0 min 187 W/m 16,1 km/h (3 Bft) 97,87 %
23.10.2018 14:00 13,5 C 13,3 C 12,2 C 78 % 1021,0 hPa 0,0 l/m 0 min 0 min 148 W/m 16,1 km/h (3 Bft) 100,00 %
23.10.2018 14:02 13,6 C 13,3 C 12,2 C 78 % 1021,1 hPa 0,0 l/m 0 min 0 min 168 W/m 16,1 km/h (3 Bft) 97,92 %
23.10.2018 14:04 13,6 C 13,3 C 12,2 C 77 % 1021,1 hPa 0,0 l/m 0 min 0 min 164 W/m 19,3 km/h (3 Bft) 97,83 %
23.10.2018 14:08 13,5 C 13,3 C 12,2 C 77 % 1020,8 hPa 0,0 l/m 0 min 0 min 168 W/m 19,3 km/h (3 Bft) 100,00 %
23.10.2018 14:10 13,5 C 13,3 C 12,2 C 77 % 1020,9 hPa 0,0 l/m 0 min 0 min 188 W/m 12,9 km/h (3 Bft) 100,00 %
23.10.2018 14:12 13,5 C 13,3 C 12,2 C 77 % 1021,0 hPa 0,0 l/m 0 min 0 min 159 W/m 12,9 km/h (3 Bft) 100,00 %
23.10.2018 14:14 13,5 C 12,8 C 12,2 C 77 % 1021,1 hPa 0,0 l/m 0 min 0 min 113 W/m 19,3 km/h (3 Bft) 100,00 %
23.10.2018 14:16 13,4 C 12,8 C 11,7 C 77 % 1021,1 hPa 0,0 l/m 0 min 0 min 89 W/m 12,9 km/h (3 Bft) 100,00 %
23.10.2018 14:18 13,4 C 12,8 C 11,7 C 77 % 1021,1 hPa 0,0 l/m 0 min 0 min 82 W/m 16,1 km/h (3 Bft) 100,00 %
23.10.2018 14:20 13,4 C 12,8 C 11,7 C 77 % 1021,1 hPa 0,0 l/m 0 min 0 min 111 W/m 16,1 km/h (3 Bft) 97,87 %
23.10.2018 14:22 13,4 C 12,8 C 11,7 C 78 % 1021,1 hPa 0,0 l/m 0 min 0 min 117 W/m 16,1 km/h (3 Bft) 100,00 %
23.10.2018 14:24 13,3 C 12,8 C 12,2 C 78 % 1021,2 hPa 0,0 l/m 0 min 0 min 101 W/m 22,5 km/h (4 Bft) 100,00 %
23.10.2018 14:26 13,3 C 12,8 C 12,2 C 78 % 1021,0 hPa 0,0 l/m 0 min 0 min 98 W/m 19,3 km/h (3 Bft) 100,00 %
23.10.2018 14:28 13,3 C 12,8 C 12,2 C 78 % 1021,0 hPa 0,0 l/m 0 min 0 min 112 W/m 16,1 km/h (3 Bft) 100,00 %
23.10.2018 14:30 13,3 C 12,8 C 12,2 C 78 % 1021,0 hPa 0,0 l/m 0 min 0 min 124 W/m 25,7 km/h (4 Bft) 100,00 %
23.10.2018 14:32 13,3 C 12,8 C 12,2 C 78 % 1021,0 hPa 0,0 l/m 0 min 0 min 142 W/m 16,1 km/h (3 Bft) 100,00 %
23.10.2018 14:34 13,3 C 12,8 C 12,2 C 78 % 1021,0 hPa 0,0 l/m 0 min 0 min 131 W/m 19,3 km/h (3 Bft) 100,00 %
23.10.2018 14:38 13,3 C 12,8 C 12,2 C 78 % 1021,0 hPa 0,0 l/m 0 min 0 min 135 W/m 19,3 km/h (3 Bft) 100,00 %
23.10.2018 14:40 13,3 C 13,3 C 12,2 C 78 % 1021,0 hPa 0,0 l/m 0 min 0 min 136 W/m 22,5 km/h (4 Bft) 100,00 %
23.10.2018 14:42 13,3 C 13,3 C 12,2 C 78 % 1020,9 hPa 0,0 l/m 0 min 0 min 121 W/m 19,3 km/h (3 Bft) 100,00 %
23.10.2018 14:44 13,3 C 13,3 C 12,2 C 78 % 1020,9 hPa 0,0 l/m 0 min 0 min 110 W/m 9,7 km/h (2 Bft) 97,87 %
23.10.2018 14:46 13,3 C 13,3 C 12,2 C 78 % 1020,7 hPa 0,0 l/m 0 min 0 min 119 W/m 16,1 km/h (3 Bft) 100,00 %
23.10.2018 14:48 13,3 C 13,3 C 12,2 C 78 % 1020,7 hPa 0,0 l/m 0 min 0 min 140 W/m 16,1 km/h (3 Bft) 97,87 %
23.10.2018 14:50 13,3 C 13,3 C 12,2 C 78 % 1020,6 hPa 0,0 l/m 0 min 0 min 142 W/m 9,7 km/h (2 Bft) 100,00 %
23.10.2018 14:52 13,4 C 13,3 C 12,2 C 78 % 1020,5 hPa 0,0 l/m 0 min 0 min 170 W/m 16,1 km/h (3 Bft) 97,87 %
23.10.2018 14:54 13,4 C 13,9 C 12,2 C 79 % 1020,5 hPa 0,0 l/m 0 min 0 min 199 W/m 19,3 km/h (3 Bft) 100,00 %
23.10.2018 14:56 13,4 C 13,9 C 12,2 C 79 % 1020,5 hPa 0,0 l/m 2 min 0 min 208 W/m 22,5 km/h (4 Bft) 100,00 %
23.10.2018 14:58 13,5 C 13,9 C 12,8 C 79 % 1020,5 hPa 0,0 l/m 2 min 0 min 215 W/m 19,3 km/h (3 Bft) 97,87 %
23.10.2018 15:00 13,6 C 13,9 C 12,8 C 79 % 1020,5 hPa 0,0 l/m 2 min 0 min 222 W/m 12,9 km/h (3 Bft) 100,00 %
23.10.2018 15:02 13,6 C 13,9 C 12,8 C 79 % 1020,6 hPa 0,0 l/m 2 min 0 min 226 W/m 12,9 km/h (3 Bft) 97,83 %
23.10.2018 15:04 13,6 C 13,9 C 12,8 C 79 % 1020,6 hPa 0,0 l/m 0 min 0 min 160 W/m 16,1 km/h (3 Bft) 97,87 %
23.10.2018 15:08 13,7 C 13,9 C 12,8 C 78 % 1020,4 hPa 0,0 l/m 0 min 0 min 113 W/m 12,9 km/h (3 Bft) 96,81 %
23.10.2018 15:10 13,7 C 13,9 C 12,8 C 78 % 1020,4 hPa 0,0 l/m 0 min 0 min 108 W/m 12,9 km/h (3 Bft) 95,74 %
23.10.2018 15:12 13,8 C 13,3 C 12,8 C 78 % 1020,5 hPa 0,0 l/m 0 min 0 min 83 W/m 12,9 km/h (3 Bft) 93,62 %
23.10.2018 15:14 13,8 C 13,3 C 12,2 C 78 % 1020,4 hPa 0,0 l/m 0 min 0 min 70 W/m 19,3 km/h (3 Bft) 95,65 %
23.10.2018 15:16 13,8 C 13,3 C 12,2 C 78 % 1020,6 hPa 0,0 l/m 0 min 0 min 75 W/m 16,1 km/h (3 Bft) 93,62 %
23.10.2018 15:18 13,8 C 13,3 C 12,2 C 78 % 1020,6 hPa 0,0 l/m 0 min 0 min 80 W/m 16,1 km/h (3 Bft) 95,74 %
23.10.2018 15:20 13,7 C 13,3 C 12,2 C 78 % 1020,5 hPa 0,0 l/m 0 min 0 min 90 W/m 16,1 km/h (3 Bft) 95,74 %
23.10.2018 15:22 13,7 C 13,3 C 12,2 C 78 % 1020,5 hPa 0,0 l/m 0 min 0 min 92 W/m 22,5 km/h (4 Bft) 95,74 %
23.10.2018 15:24 13,7 C 13,3 C 12,2 C 78 % 1020,5 hPa 0,0 l/m 0 min 0 min 89 W/m 16,1 km/h (3 Bft) 95,74 %
23.10.2018 15:26 13,7 C 13,3 C 12,2 C 78 % 1020,4 hPa 0,0 l/m 0 min 0 min 73 W/m 22,5 km/h (4 Bft) 95,65 %
23.10.2018 15:28 13,7 C 13,3 C 12,2 C 78 % 1020,5 hPa 0,0 l/m 0 min 0 min 68 W/m 9,7 km/h (2 Bft) 95,74 %
23.10.2018 15:30 13,7 C 13,3 C 12,2 C 78 % 1020,4 hPa 0,0 l/m 0 min 0 min 54 W/m 12,9 km/h (3 Bft) 93,62 %
23.10.2018 15:32 13,7 C 13,3 C 12,2 C 78 % 1020,5 hPa 0,0 l/m 0 min 0 min 56 W/m 16,1 km/h (3 Bft) 93,62 %
23.10.2018 15:34 13,7 C 13,3 C 12,2 C 78 % 1020,6 hPa 0,0 l/m 0 min 0 min 54 W/m 16,1 km/h (3 Bft) 95,74 %
23.10.2018 15:38 13,7 C 13,3 C 12,2 C 78 % 1020,6 hPa 0,0 l/m 0 min 0 min 61 W/m 9,7 km/h (2 Bft) 95,70 %
23.10.2018 15:40 13,7 C 13,3 C 12,2 C 78 % 1020,6 hPa 0,0 l/m 0 min 0 min 75 W/m 9,7 km/h (2 Bft) 95,74 %
23.10.2018 15:42 13,7 C 13,3 C 12,2 C 79 % 1020,6 hPa 0,0 l/m 0 min 0 min 79 W/m 9,7 km/h (2 Bft) 95,74 %
23.10.2018 15:44 13,7 C 13,3 C 12,2 C 79 % 1020,6 hPa 0,0 l/m 0 min 0 min 68 W/m 12,9 km/h (3 Bft) 93,62 %
23.10.2018 15:46 13,7 C 13,3 C 12,2 C 79 % 1020,6 hPa 0,0 l/m 0 min 0 min 69 W/m 12,9 km/h (3 Bft) 95,83 %
23.10.2018 15:48 13,7 C 13,3 C 12,2 C 79 % 1020,7 hPa 0,0 l/m 0 min 0 min 63 W/m 29,0 km/h (5 Bft) 95,74 %
23.10.2018 15:50 13,7 C 13,3 C 12,2 C 79 % 1020,7 hPa 0,0 l/m 0 min 0 min 60 W/m 16,1 km/h (3 Bft) 97,83 %
23.10.2018 15:52 13,7 C 13,3 C 12,2 C 79 % 1020,8 hPa 0,0 l/m 0 min 0 min 52 W/m 12,9 km/h (3 Bft) 97,87 %
23.10.2018 15:54 13,7 C 13,3 C 12,2 C 79 % 1020,8 hPa 0,0 l/m 0 min 0 min 53 W/m 12,9 km/h (3 Bft) 95,74 %
23.10.2018 15:56 13,7 C 13,3 C 12,2 C 79 % 1020,8 hPa 0,0 l/m 0 min 0 min 55 W/m 16,1 km/h (3 Bft) 97,87 %
23.10.2018 15:58 13,7 C 13,3 C 12,2 C 79 % 1020,7 hPa 0,0 l/m 0 min 0 min 49 W/m 9,7 km/h (2 Bft) 97,87 %
23.10.2018 16:00 13,7 C 13,3 C 12,2 C 79 % 1020,6 hPa 0,0 l/m 0 min 0 min 45 W/m 9,7 km/h (2 Bft) 97,87 %
23.10.2018 16:02 13,7 C 13,3 C 12,2 C 79 % 1020,6 hPa 0,0 l/m 0 min 0 min 48 W/m 6,4 km/h (2 Bft) 100,00 %
23.10.2018 16:04 13,7 C 13,3 C 12,2 C 79 % 1020,5 hPa 0,0 l/m 0 min 0 min 57 W/m 9,7 km/h (2 Bft) 97,87 %
23.10.2018 16:08 13,7 C 13,3 C 12,8 C 79 % 1020,5 hPa 0,0 l/m 0 min 0 min 56 W/m 9,7 km/h (2 Bft) 98,96 %
23.10.2018 16:10 13,7 C 13,3 C 12,8 C 80 % 1020,5 hPa 0,0 l/m 0 min 0 min 38 W/m 12,9 km/h (3 Bft) 97,87 %
23.10.2018 16:12 13,7 C 13,3 C 12,8 C 80 % 1020,5 hPa 0,0 l/m 0 min 0 min 34 W/m 9,7 km/h (2 Bft) 97,87 %
23.10.2018 16:14 13,7 C 13,3 C 12,8 C 80 % 1020,4 hPa 0,0 l/m 0 min 0 min 30 W/m 16,1 km/h (3 Bft) 97,83 %
23.10.2018 16:16 13,7 C 13,3 C 12,8 C 80 % 1020,2 hPa 0,0 l/m 0 min 0 min 37 W/m 16,1 km/h (3 Bft) 97,87 %
23.10.2018 16:18 13,8 C 13,3 C 12,8 C 80 % 1020,2 hPa 0,0 l/m 0 min 0 min 44 W/m 16,1 km/h (3 Bft) 97,87 %
23.10.2018 16:20 13,8 C 13,3 C 12,8 C 80 % 1020,1 hPa 0,0 l/m 0 min 0 min 41 W/m 19,3 km/h (3 Bft) 97,87 %
23.10.2018 16:22 13,8 C 13,3 C 12,8 C 80 % 1020,0 hPa 0,0 l/m 0 min 0 min 43 W/m 16,1 km/h (3 Bft) 97,87 %
23.10.2018 16:24 13,8 C 13,3 C 12,8 C 80 % 1020,1 hPa 0,0 l/m 0 min 0 min 48 W/m 25,7 km/h (4 Bft) 95,65 %
23.10.2018 16:26 13,9 C 13,3 C 12,8 C 80 % 1020,1 hPa 0,0 l/m 0 min 0 min 43 W/m 22,5 km/h (4 Bft) 97,87 %
23.10.2018 16:28 13,9 C 13,3 C 12,8 C 79 % 1020,0 hPa 0,0 l/m 0 min 0 min 37 W/m 22,5 km/h (4 Bft) 95,74 %
23.10.2018 16:30 13,9 C 13,3 C 12,8 C 79 % 1020,0 hPa 0,0 l/m 0 min 0 min 35 W/m 19,3 km/h (3 Bft) 97,87 %
23.10.2018 16:32 13,9 C 13,3 C 12,8 C 79 % 1019,9 hPa 0,0 l/m 0 min 0 min 36 W/m 16,1 km/h (3 Bft) 95,74 %
23.10.2018 16:34 13,9 C 13,3 C 12,8 C 79 % 1020,0 hPa 0,0 l/m 0 min 0 min 46 W/m 22,5 km/h (4 Bft) 95,74 %
23.10.2018 16:38 14,0 C 13,3 C 12,8 C 79 % 1020,3 hPa 0,0 l/m 0 min 0 min 43 W/m 19,3 km/h (3 Bft) 97,85 %
23.10.2018 16:40 14,0 C 13,3 C 12,8 C 79 % 1020,3 hPa 0,0 l/m 0 min 0 min 40 W/m 19,3 km/h (3 Bft) 97,87 %
23.10.2018 16:42 14,0 C 13,3 C 12,8 C 79 % 1020,3 hPa 0,0 l/m 0 min 0 min 43 W/m 22,5 km/h (4 Bft) 97,87 %
23.10.2018 16:44 14,0 C 13,3 C 12,8 C 79 % 1020,5 hPa 0,0 l/m 0 min 0 min 40 W/m 16,1 km/h (3 Bft) 97,87 %
23.10.2018 16:46 14,0 C 13,3 C 12,8 C 79 % 1020,6 hPa 0,0 l/m 0 min 0 min 31 W/m 25,7 km/h (4 Bft) 97,87 %
23.10.2018 16:48 14,0 C 13,3 C 12,8 C 79 % 1020,5 hPa 0,0 l/m 0 min 0 min 21 W/m 22,5 km/h (4 Bft) 97,83 %
23.10.2018 16:50 14,0 C 13,3 C 12,8 C 79 % 1020,6 hPa 0,0 l/m 0 min 0 min 19 W/m 22,5 km/h (4 Bft) 97,87 %
23.10.2018 16:52 14,0 C 13,3 C 12,8 C 79 % 1020,6 hPa 0,0 l/m 0 min 0 min 18 W/m 22,5 km/h (4 Bft) 95,74 %
23.10.2018 16:54 14,0 C 13,3 C 12,8 C 79 % 1020,4 hPa 0,0 l/m 0 min 0 min 18 W/m 19,3 km/h (3 Bft) 97,87 %
23.10.2018 16:56 13,9 C 13,3 C 12,8 C 79 % 1020,5 hPa 0,0 l/m 0 min 0 min 18 W/m 16,1 km/h (3 Bft) 97,87 %
23.10.2018 16:58 13,9 C 13,3 C 12,8 C 79 % 1020,5 hPa 0,0 l/m 0 min 0 min 18 W/m 16,1 km/h (3 Bft) 95,74 %
23.10.2018 17:00 13,9 C 13,3 C 12,8 C 79 % 1020,7 hPa 0,0 l/m 0 min 0 min 18 W/m 25,7 km/h (4 Bft) 95,65 %
23.10.2018 17:02 13,9 C 13,3 C 12,8 C 79 % 1021,0 hPa 0,0 l/m 0 min 0 min 14 W/m 29,0 km/h (5 Bft) 95,74 %
23.10.2018 17:04 13,9 C 13,3 C 12,8 C 79 % 1021,0 hPa 0,0 l/m 0 min 0 min 12 W/m 19,3 km/h (3 Bft) 97,87 %
23.10.2018 17:08 13,9 C 13,3 C 12,8 C 79 % 1020,7 hPa 0,0 l/m 0 min 0 min 15 W/m 35,4 km/h (5 Bft) 100,00 %
23.10.2018 17:10 13,8 C 13,3 C 12,8 C 79 % 1020,6 hPa 0,0 l/m 0 min 0 min 17 W/m 22,5 km/h (4 Bft) 97,87 %
23.10.2018 17:12 13,8 C 13,3 C 12,8 C 79 % 1020,7 hPa 0,0 l/m 0 min 0 min 18 W/m 16,1 km/h (3 Bft) 97,83 %
23.10.2018 17:14 13,8 C 13,3 C 12,8 C 79 % 1020,8 hPa 0,0 l/m 0 min 0 min 14 W/m 35,4 km/h (5 Bft) 97,87 %
23.10.2018 17:16 13,8 C 13,3 C 12,8 C 79 % 1020,8 hPa 0,0 l/m 0 min 0 min 9 W/m 38,6 km/h (5 Bft) 100,00 %
23.10.2018 17:18 13,8 C 13,3 C 12,8 C 79 % 1020,6 hPa 0,0 l/m 0 min 0 min 9 W/m 12,9 km/h (3 Bft) 100,00 %
23.10.2018 17:20 13,8 C 13,3 C 12,2 C 80 % 1020,3 hPa 0,0 l/m 0 min 0 min 11 W/m 16,1 km/h (3 Bft) 97,87 %
23.10.2018 17:22 13,8 C 12,8 C 12,2 C 80 % 1020,4 hPa 0,0 l/m 0 min 0 min 12 W/m 19,3 km/h (3 Bft) 98,11 %
23.10.2018 17:24 13,7 C 12,8 C 12,2 C 80 % 1020,3 hPa 0,0 l/m 0 min 0 min 9 W/m 19,3 km/h (3 Bft) 100,00 %
23.10.2018 17:26 13,7 C 12,8 C 12,2 C 80 % 1020,3 hPa 0,0 l/m 0 min 0 min 10 W/m 22,5 km/h (4 Bft) 100,00 %
23.10.2018 17:28 13,7 C 13,3 C 12,8 C 80 % 1020,3 hPa 0,0 l/m 0 min 0 min 12 W/m 12,9 km/h (3 Bft) 100,00 %
23.10.2018 17:30 13,7 C 13,3 C 12,8 C 80 % 1020,2 hPa 0,0 l/m 0 min 0 min 14 W/m 12,9 km/h (3 Bft) 100,00 %
23.10.2018 17:32 13,7 C 13,3 C 12,8 C 80 % 1020,1 hPa 0,0 l/m 0 min 0 min 15 W/m 32,2 km/h (5 Bft) 100,00 %
23.10.2018 17:34 13,7 C 13,3 C 12,8 C 80 % 1020,3 hPa 0,0 l/m 0 min 0 min 19 W/m 12,9 km/h (3 Bft) 100,00 %
23.10.2018 17:38 13,7 C 13,3 C 12,8 C 80 % 1020,4 hPa 0,0 l/m 0 min 0 min 13 W/m 22,5 km/h (4 Bft) 100,00 %
23.10.2018 17:40 13,7 C 12,8 C 12,8 C 80 % 1020,5 hPa 0,0 l/m 0 min 0 min 9 W/m 16,1 km/h (3 Bft) 97,87 %
23.10.2018 17:42 13,7 C 12,8 C 12,8 C 80 % 1020,3 hPa 0,0 l/m 0 min 0 min 11 W/m 19,3 km/h (3 Bft) 97,87 %
23.10.2018 17:44 13,7 C 12,8 C 12,8 C 80 % 1020,4 hPa 0,0 l/m 0 min 0 min 11 W/m 19,3 km/h (3 Bft) 97,87 %
23.10.2018 17:46 13,7 C 12,8 C 12,8 C 80 % 1020,5 hPa 0,0 l/m 0 min 0 min 11 W/m 12,9 km/h (3 Bft) 97,87 %
23.10.2018 17:48 13,7 C 12,8 C 12,8 C 80 % 1020,4 hPa 0,0 l/m 0 min 0 min 10 W/m 35,4 km/h (5 Bft) 95,74 %
23.10.2018 17:50 13,7 C 12,8 C 12,8 C 80 % 1020,5 hPa 0,0 l/m 0 min 0 min 11 W/m 22,5 km/h (4 Bft) 97,87 %
23.10.2018 17:52 13,7 C 12,8 C 12,8 C 80 % 1020,5 hPa 0,0 l/m 0 min 0 min 7 W/m 22,5 km/h (4 Bft) 97,87 %
23.10.2018 17:54 13,7 C 12,8 C 12,8 C 80 % 1020,5 hPa 0,0 l/m 0 min 0 min 7 W/m 16,1 km/h (3 Bft) 95,74 %
23.10.2018 17:56 13,7 C 12,8 C 12,8 C 80 % 1020,6 hPa 0,0 l/m 0 min 0 min 6 W/m 22,5 km/h (4 Bft) 97,87 %
23.10.2018 17:58 13,7 C 12,8 C 12,8 C 80 % 1020,7 hPa 0,0 l/m 0 min 0 min 5 W/m 19,3 km/h (3 Bft) 97,83 %
23.10.2018 18:00 13,7 C 12,8 C 12,2 C 80 % 1020,9 hPa 0,0 l/m 0 min 0 min 5 W/m 22,5 km/h (4 Bft) 97,87 %
23.10.2018 18:02 13,7 C 12,8 C 12,2 C 80 % 1020,8 hPa 0,0 l/m 0 min 0 min 3 W/m 25,7 km/h (4 Bft) 90,00 %
23.10.2018 18:04 13,6 C 12,8 C 12,2 C 80 % 1020,8 hPa 0,0 l/m 0 min 0 min 0 W/m 22,5 km/h (4 Bft) 95,74 %
23.10.2018 18:08 13,6 C 12,8 C 12,2 C 80 % 1020,8 hPa 0,0 l/m 0 min 0 min 0 W/m 22,5 km/h (4 Bft) 97,87 %
23.10.2018 18:10 13,6 C 12,8 C 12,2 C 80 % 1020,9 hPa 0,0 l/m 0 min 0 min 0 W/m 29,0 km/h (5 Bft) 97,83 %
23.10.2018 18:12 13,6 C 12,8 C 12,2 C 80 % 1020,8 hPa 0,0 l/m 0 min 0 min 0 W/m 29,0 km/h (5 Bft) 95,74 %
23.10.2018 18:14 13,6 C 12,8 C 12,2 C 80 % 1020,8 hPa 0,0 l/m 0 min 0 min 0 W/m 19,3 km/h (3 Bft) 97,87 %
23.10.2018 18:16 13,6 C 12,8 C 12,2 C 80 % 1020,9 hPa 0,0 l/m 0 min 0 min 0 W/m 25,7 km/h (4 Bft) 95,45 %
23.10.2018 18:18 13,6 C 12,8 C 12,2 C 80 % 1021,0 hPa 0,0 l/m 0 min 0 min 0 W/m 16,1 km/h (3 Bft) 95,74 %
23.10.2018 18:20 13,6 C 12,8 C 12,2 C 80 % 1021,1 hPa 0,0 l/m 0 min 0 min 0 W/m 16,1 km/h (3 Bft) 95,74 %
23.10.2018 18:22 13,6 C 12,8 C 12,2 C 81 % 1021,1 hPa 0,0 l/m 0 min 0 min 0 W/m 12,9 km/h (3 Bft) 93,48 %
23.10.2018 18:24 13,5 C 12,8 C 12,2 C 81 % 1021,0 hPa 0,0 l/m 0 min 0 min 0 W/m 25,7 km/h (4 Bft) 91,49 %
23.10.2018 18:26 13,5 C 12,8 C 12,2 C 81 % 1021,1 hPa 0,0 l/m 0 min 0 min 0 W/m 9,7 km/h (2 Bft) 95,74 %
23.10.2018 18:28 13,5 C 12,8 C 12,2 C 81 % 1021,1 hPa 0,0 l/m 0 min 0 min 0 W/m 22,5 km/h (4 Bft) 95,74 %
23.10.2018 18:30 13,5 C 12,8 C 12,2 C 81 % 1021,0 hPa 0,0 l/m 0 min 0 min 0 W/m 19,3 km/h (3 Bft) 97,87 %
23.10.2018 18:32 13,4 C 12,8 C 12,2 C 81 % 1021,1 hPa 0,0 l/m 0 min 0 min 0 W/m 22,5 km/h (4 Bft) 97,87 %
23.10.2018 18:34 13,4 C 12,8 C 12,2 C 81 % 1021,1 hPa 0,0 l/m 0 min 0 min 0 W/m 16,1 km/h (3 Bft) 97,83 %
23.10.2018 18:38 13,4 C 12,8 C 12,2 C 81 % 1021,0 hPa 0,0 l/m 0 min 0 min 0 W/m 32,2 km/h (5 Bft) 96,81 %
23.10.2018 18:40 13,4 C 12,8 C 12,2 C 81 % 1021,1 hPa 0,0 l/m 0 min 0 min 0 W/m 19,3 km/h (3 Bft) 95,74 %
23.10.2018 18:42 13,4 C 12,8 C 12,2 C 81 % 1021,1 hPa 0,0 l/m 0 min 0 min 0 W/m 22,5 km/h (4 Bft) 97,87 %
23.10.2018 18:44 13,4 C 12,8 C 12,2 C 82 % 1021,1 hPa 0,0 l/m 0 min 0 min 0 W/m 29,0 km/h (5 Bft) 95,74 %
23.10.2018 18:46 13,4 C 12,8 C 12,2 C 82 % 1021,1 hPa 0,0 l/m 0 min 0 min 0 W/m 19,3 km/h (3 Bft) 97,87 %
23.10.2018 18:48 13,4 C 12,8 C 12,2 C 81 % 1021,1 hPa 0,0 l/m 0 min 0 min 0 W/m 16,1 km/h (3 Bft) 97,87 %
23.10.2018 18:50 13,3 C 12,8 C 12,2 C 82 % 1021,2 hPa 0,0 l/m 0 min 0 min 0 W/m 16,1 km/h (3 Bft) 97,87 %
23.10.2018 18:52 13,3 C 12,8 C 12,2 C 82 % 1021,2 hPa 0,0 l/m 0 min 0 min 0 W/m 12,9 km/h (3 Bft) 97,87 %
23.10.2018 18:54 13,3 C 12,8 C 12,2 C 82 % 1021,2 hPa 0,0 l/m 0 min 0 min 0 W/m 16,1 km/h (3 Bft) 97,87 %
23.10.2018 18:56 13,3 C 12,8 C 12,2 C 82 % 1021,2 hPa 0,0 l/m 0 min 0 min 0 W/m 12,9 km/h (3 Bft) 97,83 %
23.10.2018 18:58 13,3 C 12,8 C 12,2 C 82 % 1021,3 hPa 0,0 l/m 0 min 0 min 0 W/m 16,1 km/h (3 Bft) 97,87 %
23.10.2018 19:00 13,3 C 12,2 C 12,2 C 82 % 1021,2 hPa 0,0 l/m 0 min 0 min 0 W/m 12,9 km/h (3 Bft) 95,74 %
23.10.2018 19:02 13,3 C 12,2 C 12,2 C 82 % 1021,2 hPa 0,0 l/m 0 min 0 min 0 W/m 16,1 km/h (3 Bft) 95,74 %
23.10.2018 19:04 13,3 C 12,2 C 12,2 C 82 % 1021,2 hPa 0,0 l/m 0 min 0 min 0 W/m 16,1 km/h (3 Bft) 97,87 %
23.10.2018 19:08 13,2 C 12,2 C 12,2 C 83 % 1021,2 hPa 0,0 l/m 0 min 0 min 0 W/m 12,9 km/h (3 Bft) 100,00 %
23.10.2018 19:10 13,2 C 12,2 C 12,2 C 83 % 1021,3 hPa 0,0 l/m 0 min 0 min 0 W/m 19,3 km/h (3 Bft) 100,00 %
23.10.2018 19:12 13,2 C 12,2 C 12,2 C 83 % 1021,2 hPa 0,0 l/m 0 min 0 min 0 W/m 9,7 km/h (2 Bft) 100,00 %
23.10.2018 19:14 13,2 C 12,2 C 12,2 C 83 % 1021,3 hPa 0,0 l/m 0 min 0 min 0 W/m 19,3 km/h (3 Bft) 100,00 %
23.10.2018 19:16 13,2 C 12,2 C 12,2 C 83 % 1021,2 hPa 0,0 l/m 0 min 0 min 0 W/m 25,7 km/h (4 Bft) 100,00 %
23.10.2018 19:18 13,2 C 12,2 C 12,2 C 83 % 1021,2 hPa 0,0 l/m 0 min 0 min 0 W/m 22,5 km/h (4 Bft) 100,00 %
23.10.2018 19:20 13,2 C 12,2 C 12,2 C 83 % 1021,1 hPa 0,0 l/m 0 min 0 min 0 W/m 19,3 km/h (3 Bft) 100,00 %
23.10.2018 19:22 13,2 C 12,2 C 12,2 C 83 % 1021,1 hPa 0,0 l/m 0 min 0 min 0 W/m 29,0 km/h (5 Bft) 100,00 %
23.10.2018 19:24 13,1 C 12,2 C 11,7 C 83 % 1021,2 hPa 0,0 l/m 0 min 0 min 0 W/m 22,5 km/h (4 Bft) 100,00 %
23.10.2018 19:26 13,1 C 12,2 C 11,7 C 83 % 1021,1 hPa 0,0 l/m 0 min 0 min 0 W/m 22,5 km/h (4 Bft) 100,00 %
23.10.2018 19:28 13,1 C 12,2 C 11,7 C 83 % 1021,1 hPa 0,0 l/m 0 min 0 min 0 W/m 16,1 km/h (3 Bft) 100,00 %
23.10.2018 19:30 13,1 C 12,2 C 11,7 C 83 % 1021,0 hPa 0,0 l/m 0 min 0 min 0 W/m 19,3 km/h (3 Bft) 100,00 %
23.10.2018 19:32 13,1 C 12,2 C 11,7 C 84 % 1021,1 hPa 0,0 l/m 0 min 0 min 0 W/m 12,9 km/h (3 Bft) 100,00 %
23.10.2018 19:34 13,1 C 12,2 C 11,7 C 84 % 1021,1 hPa 0,0 l/m 0 min 0 min 0 W/m 22,5 km/h (4 Bft) 97,87 %
23.10.2018 19:38 13,1 C 12,2 C 11,7 C 84 % 1021,1 hPa 0,0 l/m 0 min 0 min 0 W/m 12,9 km/h (3 Bft) 100,00 %
23.10.2018 19:40 13,0 C 12,2 C 11,7 C 84 % 1021,2 hPa 0,0 l/m 0 min 0 min 0 W/m 12,9 km/h (3 Bft) 97,87 %
23.10.2018 19:42 13,0 C 12,2 C 12,2 C 84 % 1021,1 hPa 0,0 l/m 0 min 0 min 0 W/m 12,9 km/h (3 Bft) 97,87 %
23.10.2018 19:44 13,0 C 12,2 C 11,7 C 84 % 1021,2 hPa 0,0 l/m 0 min 0 min 0 W/m 12,9 km/h (3 Bft) 97,83 %
23.10.2018 19:46 13,0 C 12,2 C 11,7 C 84 % 1021,2 hPa 0,0 l/m 0 min 0 min 0 W/m 16,1 km/h (3 Bft) 97,87 %
23.10.2018 19:48 13,0 C 12,2 C 11,7 C 84 % 1021,2 hPa 0,0 l/m 0 min 0 min 0 W/m 19,3 km/h (3 Bft) 97,87 %
23.10.2018 19:50 13,0 C 12,2 C 12,2 C 84 % 1021,4 hPa 0,0 l/m 0 min 0 min 0 W/m 41,8 km/h (6 Bft) 97,87 %
23.10.2018 19:52 13,0 C 12,2 C 12,2 C 84 % 1021,3 hPa 0,0 l/m 0 min 0 min 0 W/m 29,0 km/h (5 Bft) 97,87 %
23.10.2018 19:54 13,0 C 12,2 C 12,2 C 84 % 1021,3 hPa 0,0 l/m 0 min 0 min 0 W/m 19,3 km/h (3 Bft) 97,87 %
23.10.2018 19:56 13,1 C 12,2 C 12,2 C 84 % 1021,4 hPa 0,0 l/m 0 min 0 min 0 W/m 12,9 km/h (3 Bft) 97,83 %
23.10.2018 19:58 13,0 C 12,2 C 12,2 C 84 % 1021,4 hPa 0,0 l/m 0 min 0 min 0 W/m 16,1 km/h (3 Bft) 97,87 %
23.10.2018 20:00 13,0 C 12,2 C 11,7 C 84 % 1021,4 hPa 0,0 l/m 0 min 0 min 0 W/m 12,9 km/h (3 Bft) 95,74 %
23.10.2018 20:02 13,0 C 12,2 C 11,7 C 84 % 1021,3 hPa 0,0 l/m 0 min 0 min 0 W/m 16,1 km/h (3 Bft) 95,74 %
23.10.2018 20:04 13,0 C 12,2 C 12,2 C 84 % 1021,4 hPa 0,0 l/m 0 min 0 min 0 W/m 19,3 km/h (3 Bft) 95,74 %
23.10.2018 20:08 13,1 C 12,2 C 12,2 C 84 % 1021,3 hPa 0,0 l/m 0 min 0 min 0 W/m 16,1 km/h (3 Bft) 98,92 %
23.10.2018 20:10 13,1 C 12,2 C 12,2 C 84 % 1021,3 hPa 0,0 l/m 0 min 0 min 0 W/m 9,7 km/h (2 Bft) 95,74 %
23.10.2018 20:12 13,1 C 12,2 C 12,2 C 84 % 1021,2 hPa 0,0 l/m 0 min 0 min 0 W/m 9,7 km/h (2 Bft) 97,87 %
23.10.2018 20:14 13,1 C 12,2 C 12,2 C 84 % 1021,3 hPa 0,0 l/m 0 min 0 min 0 W/m 16,1 km/h (3 Bft) 97,87 %
23.10.2018 20:16 13,1 C 12,2 C 12,2 C 84 % 1021,2 hPa 0,0 l/m 0 min 0 min 0 W/m 9,7 km/h (2 Bft) 97,87 %
23.10.2018 20:18 13,1 C 12,2 C 12,2 C 84 % 1021,3 hPa 0,0 l/m 0 min 0 min 0 W/m 16,1 km/h (3 Bft) 97,83 %
23.10.2018 20:20 13,1 C 12,2 C 12,2 C 84 % 1021,3 hPa 0,0 l/m 0 min 0 min 0 W/m 22,5 km/h (4 Bft) 97,87 %
23.10.2018 20:22 13,0 C 12,2 C 12,2 C 85 % 1021,3 hPa 0,0 l/m 0 min 0 min 0 W/m 12,9 km/h (3 Bft) 97,87 %
23.10.2018 20:24 13,1 C 12,2 C 12,2 C 85 % 1021,3 hPa 0,0 l/m 0 min 0 min 0 W/m 9,7 km/h (2 Bft) 95,74 %
23.10.2018 20:26 13,1 C 12,8 C 12,2 C 85 % 1021,3 hPa 0,0 l/m 0 min 0 min 0 W/m 22,5 km/h (4 Bft) 95,74 %
23.10.2018 20:28 13,1 C 12,2 C 12,2 C 85 % 1021,3 hPa 0,0 l/m 0 min 0 min 0 W/m 12,9 km/h (3 Bft) 95,74 %
23.10.2018 20:30 13,1 C 12,2 C 12,2 C 85 % 1021,3 hPa 0,0 l/m 0 min 0 min 0 W/m 12,9 km/h (3 Bft) 95,65 %
23.10.2018 20:32 13,1 C 12,2 C 12,2 C 85 % 1021,3 hPa 0,0 l/m 0 min 0 min 0 W/m 16,1 km/h (3 Bft) 95,74 %
23.10.2018 20:34 13,1 C 12,2 C 12,2 C 85 % 1021,3 hPa 0,0 l/m 0 min 0 min 0 W/m 16,1 km/h (3 Bft) 95,74 %
23.10.2018 20:38 13,1 C 12,2 C 12,2 C 85 % 1021,4 hPa 0,0 l/m 0 min 0 min 0 W/m 19,3 km/h (3 Bft) 95,74 %
23.10.2018 20:40 13,1 C 12,2 C 12,2 C 85 % 1021,4 hPa 0,0 l/m 0 min 0 min 0 W/m 22,5 km/h (4 Bft) 95,83 %
23.10.2018 20:42 13,1 C 12,2 C 12,2 C 85 % 1021,4 hPa 0,0 l/m 0 min 0 min 0 W/m 16,1 km/h (3 Bft) 97,83 %
23.10.2018 20:44 13,1 C 12,2 C 12,2 C 85 % 1021,4 hPa 0,0 l/m 0 min 0 min 0 W/m 9,7 km/h (2 Bft) 95,74 %
23.10.2018 20:46 13,1 C 12,2 C 12,2 C 85 % 1021,2 hPa 0,0 l/m 0 min 0 min 0 W/m 12,9 km/h (3 Bft) 97,87 %
23.10.2018 20:48 13,1 C 12,2 C 11,7 C 85 % 1021,3 hPa 0,0 l/m 0 min 0 min 0 W/m 9,7 km/h (2 Bft) 97,87 %
23.10.2018 20:50 13,1 C 12,2 C 12,2 C 85 % 1021,2 hPa 0,0 l/m 0 min 0 min 0 W/m 12,9 km/h (3 Bft) 97,87 %
23.10.2018 20:52 13,1 C 12,2 C 12,2 C 85 % 1021,2 hPa 0,0 l/m 0 min 0 min 0 W/m 16,1 km/h (3 Bft) 91,49 %
23.10.2018 20:54 13,1 C 12,2 C 12,2 C 85 % 1021,2 hPa 0,0 l/m 0 min 0 min 0 W/m 6,4 km/h (2 Bft) 97,83 %
23.10.2018 20:56 13,1 C 12,2 C 12,2 C 85 % 1021,1 hPa 0,0 l/m 0 min 0 min 0 W/m 9,7 km/h (2 Bft) 95,74 %
23.10.2018 20:58 13,1 C 12,2 C 11,7 C 85 % 1021,0 hPa 0,0 l/m 0 min 0 min 0 W/m 12,9 km/h (3 Bft) 95,74 %
23.10.2018 21:00 13,1 C 12,2 C 11,7 C 85 % 1021,0 hPa 0,0 l/m 0 min 0 min 0 W/m 12,9 km/h (3 Bft) 97,87 %
23.10.2018 21:02 13,1 C 12,2 C 11,7 C 85 % 1021,1 hPa 0,0 l/m 0 min 0 min 0 W/m 16,1 km/h (3 Bft) 95,74 %
23.10.2018 21:04 13,1 C 12,2 C 11,7 C 85 % 1021,2 hPa 0,0 l/m 0 min 0 min 0 W/m 12,9 km/h (3 Bft) 97,87 %
23.10.2018 21:08 13,0 C 12,2 C 11,7 C 85 % 1021,1 hPa 0,0 l/m 0 min 0 min 0 W/m 16,1 km/h (3 Bft) 94,62 %
23.10.2018 21:10 13,1 C 12,2 C 11,7 C 85 % 1021,2 hPa 0,0 l/m 0 min 0 min 0 W/m 12,9 km/h (3 Bft) 97,87 %
23.10.2018 21:12 13,0 C 12,2 C 11,7 C 85 % 1021,3 hPa 0,0 l/m 0 min 0 min 0 W/m 9,7 km/h (2 Bft) 100,00 %
23.10.2018 21:14 13,0 C 12,2 C 11,7 C 85 % 1021,4 hPa 0,0 l/m 0 min 0 min 0 W/m 9,7 km/h (2 Bft) 97,87 %
23.10.2018 21:16 13,0 C 12,2 C 11,7 C 85 % 1021,4 hPa 0,0 l/m 0 min 0 min 0 W/m 9,7 km/h (2 Bft) 95,35 %
23.10.2018 21:18 13,0 C 12,2 C 11,7 C 86 % 1021,4 hPa 0,0 l/m 0 min 0 min 0 W/m 16,1 km/h (3 Bft) 97,83 %
23.10.2018 21:20 13,0 C 12,2 C 11,7 C 86 % 1021,3 hPa 0,0 l/m 0 min 0 min 0 W/m 19,3 km/h (3 Bft) 100,00 %
23.10.2018 21:22 13,0 C 12,2 C 11,7 C 86 % 1021,3 hPa 0,0 l/m 0 min 0 min 0 W/m 9,7 km/h (2 Bft) 97,87 %
23.10.2018 21:24 13,0 C 12,2 C 11,7 C 86 % 1021,2 hPa 0,0 l/m 0 min 0 min 0 W/m 19,3 km/h (3 Bft) 97,87 %
23.10.2018 21:26 13,0 C 12,2 C 11,7 C 86 % 1021,1 hPa 0,0 l/m 0 min 0 min 0 W/m 12,9 km/h (3 Bft) 95,74 %
23.10.2018 21:28 13,0 C 12,2 C 11,7 C 86 % 1020,9 hPa 0,0 l/m 0 min 0 min 0 W/m 16,1 km/h (3 Bft) 97,83 %
23.10.2018 21:30 13,0 C 12,2 C 11,7 C 86 % 1021,0 hPa 0,0 l/m 0 min 0 min 0 W/m 12,9 km/h (3 Bft) 97,87 %
23.10.2018 21:32 13,0 C 11,7 C 11,7 C 86 % 1021,2 hPa 0,0 l/m 0 min 0 min 0 W/m 16,1 km/h (3 Bft) 97,87 %
23.10.2018 21:34 13,0 C 11,7 C 11,7 C 86 % 1021,4 hPa 0,0 l/m 0 min 2 min 0 W/m 19,3 km/h (3 Bft) 97,87 %
23.10.2018 21:38 13,0 C 11,1 C 11,1 C 87 % 1021,4 hPa 0,0 l/m 0 min 4 min 0 W/m 22,5 km/h (4 Bft) 97,87 %
23.10.2018 21:40 12,9 C 11,1 C 11,1 C 87 % 1021,3 hPa 0,0 l/m 0 min 2 min 0 W/m 19,3 km/h (3 Bft) 97,87 %
23.10.2018 21:42 12,9 C 11,1 C 11,1 C 88 % 1021,3 hPa 0,0 l/m 0 min 0 min 0 W/m 12,9 km/h (3 Bft) 97,83 %
23.10.2018 21:44 12,9 C 11,1 C 11,1 C 88 % 1021,2 hPa 0,0 l/m 0 min 0 min 0 W/m 12,9 km/h (3 Bft) 97,87 %
23.10.2018 21:46 12,9 C 11,1 C 11,1 C 88 % 1021,3 hPa 0,0 l/m 0 min 2 min 0 W/m 25,7 km/h (4 Bft) 93,62 %
23.10.2018 21:48 12,8 C 11,1 C 11,1 C 89 % 1021,3 hPa 0,0 l/m 0 min 0 min 0 W/m 9,7 km/h (2 Bft) 97,87 %
23.10.2018 21:50 12,8 C 11,1 C 11,1 C 89 % 1021,3 hPa 0,0 l/m 0 min 0 min 0 W/m 19,3 km/h (3 Bft) 95,74 %
23.10.2018 21:52 12,7 C 11,1 C 11,1 C 89 % 1021,4 hPa 0,0 l/m 0 min 0 min 0 W/m 12,9 km/h (3 Bft) 97,83 %
23.10.2018 21:54 12,7 C 11,1 C 11,1 C 89 % 1021,3 hPa 0,0 l/m 0 min 0 min 0 W/m 12,9 km/h (3 Bft) 97,87 %
23.10.2018 21:56 12,7 C 10,6 C 10,6 C 90 % 1021,2 hPa 0,0 l/m 0 min 0 min 0 W/m 12,9 km/h (3 Bft) 97,87 %
23.10.2018 21:58 12,6 C 10,6 C 10,6 C 90 % 1021,2 hPa 0,0 l/m 0 min 0 min 0 W/m 12,9 km/h (3 Bft) 97,87 %
23.10.2018 22:00 12,6 C 10,6 C 10,6 C 90 % 1021,3 hPa 0,0 l/m 0 min 0 min 0 W/m 6,4 km/h (2 Bft) 97,87 %
23.10.2018 22:02 12,6 C 10,6 C 10,6 C 90 % 1021,3 hPa 0,0 l/m 0 min 0 min 0 W/m 6,4 km/h (2 Bft) 97,92 %
23.10.2018 22:04 12,5 C 10,6 C 10,6 C 90 % 1021,2 hPa 0,0 l/m 0 min 0 min 0 W/m 12,9 km/h (3 Bft) 97,83 %
23.10.2018 22:08 12,4 C 10,6 C 10,6 C 91 % 1021,2 hPa 0,0 l/m 0 min 0 min 0 W/m 9,7 km/h (2 Bft) 100,00 %
23.10.2018 22:10 12,4 C 10,6 C 10,6 C 91 % 1021,2 hPa 0,0 l/m 0 min 0 min 0 W/m 3,2 km/h (1 Bft) 100,00 %
23.10.2018 22:12 12,4 C 10,6 C 10,6 C 91 % 1021,3 hPa 0,0 l/m 0 min 0 min 0 W/m 9,7 km/h (2 Bft) 100,00 %
23.10.2018 22:14 12,3 C 10,6 C 10,6 C 91 % 1021,3 hPa 0,0 l/m 0 min 0 min 0 W/m 9,7 km/h (2 Bft) 100,00 %
23.10.2018 22:16 12,3 C 11,1 C 11,1 C 91 % 1021,3 hPa 0,0 l/m 0 min 0 min 0 W/m 9,7 km/h (2 Bft) 100,00 %
23.10.2018 22:18 12,3 C 11,1 C 11,1 C 91 % 1021,3 hPa 0,0 l/m 0 min 0 min 0 W/m 6,4 km/h (2 Bft) 100,00 %
23.10.2018 22:20 12,3 C 11,1 C 11,1 C 92 % 1021,3 hPa 0,0 l/m 0 min 0 min 0 W/m 6,4 km/h (2 Bft) 100,00 %
23.10.2018 22:22 12,2 C 11,1 C 11,1 C 92 % 1021,2 hPa 0,0 l/m 0 min 0 min 0 W/m 9,7 km/h (2 Bft) 100,00 %
23.10.2018 22:24 12,2 C 11,1 C 11,1 C 92 % 1021,2 hPa 0,0 l/m 0 min 0 min 0 W/m 6,4 km/h (2 Bft) 100,00 %
23.10.2018 22:26 12,2 C 11,1 C 11,1 C 92 % 1021,3 hPa 0,0 l/m 0 min 0 min 0 W/m 12,9 km/h (3 Bft) 100,00 %
23.10.2018 22:28 12,2 C 11,1 C 11,1 C 92 % 1021,2 hPa 0,0 l/m 0 min 0 min 0 W/m 9,7 km/h (2 Bft) 100,00 %
23.10.2018 22:30 12,2 C 11,1 C 11,1 C 92 % 1021,2 hPa 0,0 l/m 0 min 0 min 0 W/m 6,4 km/h (2 Bft) 97,87 %
23.10.2018 22:32 12,1 C 11,1 C 11,1 C 92 % 1021,2 hPa 0,0 l/m 0 min 0 min 0 W/m 9,7 km/h (2 Bft) 100,00 %
23.10.2018 22:34 12,1 C 11,7 C 11,1 C 92 % 1021,1 hPa 0,0 l/m 0 min 0 min 0 W/m 9,7 km/h (2 Bft) 95,74 %
23.10.2018 22:38 12,1 C 11,7 C 11,1 C 92 % 1021,0 hPa 0,0 l/m 0 min 0 min 0 W/m 9,7 km/h (2 Bft) 98,94 %
23.10.2018 22:40 12,1 C 11,7 C 11,1 C 92 % 1021,1 hPa 0,0 l/m 0 min 0 min 0 W/m 9,7 km/h (2 Bft) 100,00 %
23.10.2018 22:42 12,1 C 11,7 C 11,1 C 92 % 1021,0 hPa 0,0 l/m 0 min 0 min 0 W/m 6,4 km/h (2 Bft) 100,00 %
23.10.2018 22:44 12,1 C 11,7 C 11,1 C 93 % 1021,1 hPa 0,0 l/m 0 min 0 min 0 W/m 3,2 km/h (1 Bft) 100,00 %
23.10.2018 22:46 12,1 C 11,7 C 11,1 C 93 % 1021,1 hPa 0,0 l/m 0 min 0 min 0 W/m 12,9 km/h (3 Bft) 97,96 %
23.10.2018 22:48 12,1 C 11,7 C 11,7 C 93 % 1021,0 hPa 0,0 l/m 0 min 0 min 0 W/m 6,4 km/h (2 Bft) 100,00 %
23.10.2018 22:50 12,1 C 11,7 C 11,7 C 93 % 1021,0 hPa 0,0 l/m 0 min 0 min 0 W/m 9,7 km/h (2 Bft) 100,00 %
23.10.2018 22:52 12,2 C 11,7 C 11,7 C 93 % 1020,9 hPa 0,0 l/m 0 min 0 min 0 W/m 9,7 km/h (2 Bft) 100,00 %
23.10.2018 22:54 12,2 C 11,7 C 11,7 C 93 % 1021,0 hPa 0,0 l/m 0 min 0 min 0 W/m 9,7 km/h (2 Bft) 100,00 %
23.10.2018 22:56 12,2 C 11,7 C 11,7 C 93 % 1020,9 hPa 0,0 l/m 0 min 0 min 0 W/m 9,7 km/h (2 Bft) 100,00 %
23.10.2018 22:58 12,2 C 11,7 C 11,7 C 92 % 1020,8 hPa 0,0 l/m 0 min 0 min 0 W/m 6,4 km/h (2 Bft) 97,87 %
23.10.2018 23:00 12,2 C 11,7 C 11,7 C 92 % 1020,9 hPa 0,0 l/m 0 min 0 min 0 W/m 6,4 km/h (2 Bft) 100,00 %
23.10.2018 23:02 12,2 C 11,7 C 11,7 C 92 % 1021,0 hPa 0,0 l/m 0 min 0 min 0 W/m 12,9 km/h (3 Bft) 100,00 %
23.10.2018 23:04 12,2 C 12,2 C 11,7 C 93 % 1020,9 hPa 0,0 l/m 0 min 0 min 0 W/m 6,4 km/h (2 Bft) 100,00 %
23.10.2018 23:08 12,2 C 12,2 C 11,7 C 92 % 1021,0 hPa 0,0 l/m 0 min 0 min 0 W/m 12,9 km/h (3 Bft) 98,94 %
23.10.2018 23:10 12,2 C 12,2 C 11,7 C 92 % 1021,0 hPa 0,0 l/m 0 min 0 min 0 W/m 12,9 km/h (3 Bft) 97,87 %
23.10.2018 23:12 12,2 C 12,2 C 11,7 C 92 % 1020,9 hPa 0,0 l/m 0 min 0 min 0 W/m 19,3 km/h (3 Bft) 97,87 %
23.10.2018 23:14 12,3 C 12,2 C 11,7 C 92 % 1020,9 hPa 0,0 l/m 0 min 0 min 0 W/m 12,9 km/h (3 Bft) 97,87 %
23.10.2018 23:16 12,3 C 11,7 C 11,7 C 92 % 1020,8 hPa 0,0 l/m 0 min 0 min 0 W/m 9,7 km/h (2 Bft) 97,92 %
23.10.2018 23:18 12,3 C 11,7 C 11,7 C 92 % 1020,8 hPa 0,0 l/m 0 min 0 min 0 W/m 9,7 km/h (2 Bft) 93,62 %
23.10.2018 23:20 12,3 C 11,7 C 11,7 C 92 % 1020,9 hPa 0,0 l/m 0 min 0 min 0 W/m 6,4 km/h (2 Bft) 95,74 %
23.10.2018 23:22 12,3 C 11,7 C 11,7 C 92 % 1020,8 hPa 0,0 l/m 0 min 0 min 0 W/m 6,4 km/h (2 Bft) 95,74 %
23.10.2018 23:24 12,3 C 11,7 C 11,7 C 92 % 1020,8 hPa 0,0 l/m 0 min 0 min 0 W/m 9,7 km/h (2 Bft) 93,62 %
23.10.2018 23:26 12,3 C 11,7 C 11,7 C 92 % 1020,9 hPa 0,0 l/m 0 min 0 min 0 W/m 9,7 km/h (2 Bft) 95,65 %
23.10.2018 23:28 12,3 C 11,7 C 11,7 C 92 % 1020,8 hPa 0,0 l/m 0 min 0 min 0 W/m 9,7 km/h (2 Bft) 95,74 %
23.10.2018 23:30 12,4 C 11,7 C 11,7 C 91 % 1020,7 hPa 0,0 l/m 0 min 0 min 0 W/m 12,9 km/h (3 Bft) 95,74 %
23.10.2018 23:32 12,4 C 11,7 C 11,7 C 91 % 1020,8 hPa 0,0 l/m 0 min 0 min 0 W/m 9,7 km/h (2 Bft) 95,74 %
23.10.2018 23:34 12,4 C 11,7 C 11,7 C 91 % 1020,7 hPa 0,0 l/m 0 min 0 min 0 W/m 16,1 km/h (3 Bft) 95,74 %
23.10.2018 23:38 12,4 C 11,7 C 11,7 C 91 % 1020,8 hPa 0,0 l/m 0 min 0 min 0 W/m 9,7 km/h (2 Bft) 94,62 %
23.10.2018 23:40 12,4 C 11,7 C 11,7 C 91 % 1020,8 hPa 0,0 l/m 0 min 0 min 0 W/m 9,7 km/h (2 Bft) 93,62 %
23.10.2018 23:42 12,4 C 11,7 C 11,7 C 91 % 1020,8 hPa 0,0 l/m 0 min 0 min 0 W/m 9,7 km/h (2 Bft) 95,74 %
23.10.2018 23:44 12,4 C 11,7 C 11,7 C 91 % 1020,8 hPa 0,0 l/m 0 min 0 min 0 W/m 9,7 km/h (2 Bft) 95,74 %
23.10.2018 23:46 12,4 C 11,7 C 11,7 C 91 % 1020,6 hPa 0,0 l/m 0 min 0 min 0 W/m 9,7 km/h (2 Bft) 95,83 %
23.10.2018 23:48 12,4 C 11,7 C 11,1 C 91 % 1020,6 hPa 0,0 l/m 0 min 0 min 0 W/m 16,1 km/h (3 Bft) 95,74 %
23.10.2018 23:50 12,4 C 11,7 C 11,1 C 91 % 1020,7 hPa 0,0 l/m 0 min 0 min 0 W/m 9,7 km/h (2 Bft) 95,74 %
23.10.2018 23:52 12,4 C 11,7 C 11,1 C 91 % 1020,6 hPa 0,0 l/m 0 min 0 min 0 W/m 9,7 km/h (2 Bft) 91,30 %
23.10.2018 23:54 12,4 C 11,7 C 11,7 C 91 % 1020,7 hPa 0,0 l/m 0 min 0 min 0 W/m 9,7 km/h (2 Bft) 93,62 %
23.10.2018 23:56 12,4 C 11,7 C 11,1 C 91 % 1020,7 hPa 0,0 l/m 0 min 0 min 0 W/m 12,9 km/h (3 Bft) 97,87 %
23.10.2018 23:58 12,4 C 11,7 C 11,1 C 92 % 1020,6 hPa 0,0 l/m 0 min 0 min 0 W/m 9,7 km/h (2 Bft) 91,49 %
_ Min-Zeit 01:58 00:56 00:56 14:04 16:32 - - - - 00:02 01:52
Minimum _ 4,7 C 3,9 C 3,9 C 77 % 1019,9 hPa - - - - 0,0 km/h (0 Bft) 87,23 %
_ Max-Zeit 16:38 13:42 13:56 03:18 00:00 00:00 12:38 21:38 13:34 19:50 00:30
Maximum _ 14,0 C 14,4 C 12,8 C 93 % 1031,3 hPa 0,0 l/m 4 min 4 min 609 W/m 41,8 km/h
N-NW (6 Bft)
100,00 %
Durchschnitt _ 9,8 C 9,4 C 9,0 C 86 % 1024,0 hPa #0,0 l/m #1:12 h #10 min. 101 W/m 12,0 km/h (2 Bft) 97,45 %
© 2018 W. Hausmann